GFSWCAN_850_dewp_057.txt.gz
Dewpoint
-1 -1 -2 -5 -7 -6 -5 -8 -5 -1 -0 -0 -1 -4 -5 -5 -2 -2 -1 3 5 6 5 4 1 1 3 4 7 7 6 8 8 5 6 5 4 3 4 6 5 4 5 4 5 7 5 1 -4 -1 2 -0 -0 1
-2 -5 -7 -7 -7 -6 -2 -1 -0 -0 -0 -2 -5 -5 -4 -4 -1 -1 1 2 4 4 7 7 5 1 2 3 5 5 4 5 6 6 6 6 7 5 4 4 3 6 6 6 5 5 3 -0 1 -1 -1 1 1 1
-8 -7 -3 -1 -1 -1 -1 -1 -2 -3 -4 -5 -6 -6 -5 -2 -3 -1 1 3 4 5 8 8 7 4 4 3 3 5 5 3 6 4 7 6 6 5 5 5 3 2 1 4 3 1 -1 2 1 1 1 2 2 2
-2 -3 -4 -5 -6 -6 -7 -7 -8 -8 -7 -7 -6 -5 -4 -2 -5 -4 0 3 5 6 6 8 7 5 6 7 5 4 3 7 5 4 6 4 5 5 5 4 4 3 1 2 2 3 4 4 3 3 2 3 3 2
-4 -4 -6 -8 -8 -8 -8 -9 -9 -7 -6 -5 -5 -3 -2 -1 -5 1 1 2 5 6 6 8 6 6 5 7 6 5 4 8 4 2 3 5 6 5 4 4 3 1 2 2 3 4 4 4 3 3 2 1 1 1
-5 -10 -11 -10 -10 -10 -10 -8 -8 -7 -5 -4 -3 -0 -1 1 2 1 2 2 4 5 8 5 6 7 6 6 7 5 3 8 6 7 6 5 5 5 4 3 2 3 3 3 4 4 3 2 2 2 1 -0 -1 -1
-9 -10 -9 -9 -10 -9 -5 -5 -4 -3 -3 -2 -1 -0 1 2 1 3 4 6 6 6 7 4 5 7 7 7 7 7 7 7 6 6 7 5 5 4 4 4 3 3 3 4 4 3 1 1 -1 -1 -1 -1 -1 -1
-8 -8 -8 -8 -4 -1 -1 -0 -1 -1 -1 -2 -1 1 2 2 3 3 6 6 7 6 6 3 4 6 6 7 6 7 7 6 5 5 6 4 5 5 4 3 3 3 2 3 3 3 1 -0 -0 -0 -0 -1 -2 -3
-1 0 -1 -3 -3 -3 -2 -3 -3 -1 1 1 2 3 3 4 4 3 5 4 3 3 3 2 5 5 6 5 6 6 5 3 5 2 4 4 3 4 4 3 2 1 1 1 1 0 1 1 1 -1 -2 -3 -3 -3
2 1 0 -0 -0 1 2 1 1 1 2 2 3 4 3 5 5 5 4 3 1 -1 2 3 5 4 5 4 4 4 3 3 4 3 4 3 3 2 2 2 2 2 -0 0 1 1 0 -0 -1 -2 -3 -3 -4 -4
3 3 3 3 3 3 3 3 3 3 3 4 5 4 5 5 4 4 3 3 3 1 3 4 4 4 5 3 2 3 2 2 4 3 4 4 3 2 2 2 2 2 0 0 0 0 -0 -2 -3 -4 -4 -5 -6 -14
4 4 4 4 4 4 4 4 5 3 5 5 4 4 3 3 3 3 2 1 3 3 3 3 4 4 4 3 2 2 3 2 4 2 4 3 3 2 1 1 1 1 1 1 0 -0 -2 -4 -4 -5 -9 -14 -15 -14
4 4 5 5 6 6 6 5 5 5 3 3 2 2 3 3 3 4 3 3 2 2 3 3 2 2 3 2 2 2 4 4 2 3 2 2 2 1 1 1 0 0 0 -1 -2 -3 -5 -7 -7 -13 -14 -11 -11 -14
4 4 4 4 5 5 5 5 4 3 1 1 3 3 3 3 2 1 2 2 1 2 3 2 3 2 2 1 1 3 2 2 4 3 2 2 1 1 1 0 -1 -2 -4 -5 -6 -6 -7 -12 -13 -9 -9 -11 -14 -16
3 3 4 4 4 4 3 3 3 1 1 1 1 2 0 -1 -0 -0 0 1 2 2 2 2 2 1 1 2 1 2 3 3 2 2 2 1 1 0 -0 -1 -3 -5 -5 -6 -9 -14 -14 -13 -11 -11 -13 -15 -16 -17
4 3 3 3 3 3 3 3 2 2 0 -0 -1 0 -0 0 -0 0 1 1 2 3 3 2 1 2 3 2 2 3 2 2 2 1 1 1 -0 -1 -3 -4 -5 -6 -7 -12 -12 -11 -10 -10 -11 -13 -14 -15 -16 -18
3 3 3 4 3 3 3 3 2 -1 -1 -1 -1 -1 -1 -1 -1 -1 0 1 2 1 1 1 2 2 1 2 2 1 1 0 -0 0 0 0 -1 -3 -4 -6 -6 -6 -10 -10 -8 -8 -9 -11 -13 -13 -14 -16 -18 -19
2 3 3 3 3 3 3 1 -1 -2 -2 -2 -2 -2 -2 -2 -1 -1 -0 1 1 1 1 0 0 2 2 2 1 -1 -2 -1 -1 -0 -1 -2 -4 -4 -4 -4 -4 -5 -7 -7 -8 -10 -12 -12 -12 -13 -15 -18 -17 -19
-7 -5 2 2 3 1 -1 -1 -1 -2 -2 -2 -2 -2 -2 -2 -1 -1 -0 0 0 1 1 1 -1 -0 -1 -2 -2 -2 -2 -2 -2 -1 -2 -2 -3 -3 -3 -3 -4 -4 -6 -8 -9 -11 -11 -11 -13 -15 -19 -24 -24 -22
-10 -8 -8 0 2 -3 -2 -2 -2 -2 -2 -2 -2 -2 -2 -2 -2 -2 -2 -1 -2 -3 -4 -4 -4 -4 -4 -2 -2 -2 -2 -2 -2 -2 -3 -3 -3 -3 -3 -4 -4 -5 -6 -7 -8 -9 -11 -12 -13 -19 -24 -25 -26 -25
-14 -13 -10 -5 -5 -4 -2 -2 -2 -2 -2 -2 -2 -2 -2 -2 -2 -3 -4 -5 -6 -4 -4 -4 -4 -4 -2 -2 -2 -3 -3 -2 -3 -3 -4 -4 -4 -4 -5 -6 -6 -7 -7 -8 -9 -10 -11 -14 -19 -24 -26 -26 -24 -21
-16 -17 -12 -8 -6 -4 -3 -2 -2 -2 -2 -2 -1 -2 -2 -2 -2 -3 -6 -6 -6 -6 -5 -5 -5 -5 -4 -4 -4 -3 -2 -2 -3 -4 -4 -5 -6 -6 -7 -7 -8 -8 -9 -9 -10 -12 -17 -20 -24 -25 -25 -25 -22 -20
-21 -16 -11 -7 -7 -6 -5 -4 -3 -2 -2 -1 -2 -2 -2 -3 -3 -5 -5 -6 -6 -6 -6 -6 -6 -6 -6 -6 -5 -5 -4 -4 -4 -5 -6 -6 -7 -8 -8 -9 -9 -10 -10 -13 -17 -19 -21 -23 -23 -24 -23 -22 -22 -20
-14 -8 -6 -4 -4 -4 -5 -5 -5 -4 -4 -3 -4 -4 -4 -3 -4 -7 -6 -7 -8 -8 -7 -6 -6 -7 -7 -7 -8 -8 -8 -7 -8 -8 -8 -8 -9 -10 -10 -10 -11 -13 -17 -18 -19 -21 -22 -22 -24 -25 -24 -22 -22 -19
-10 -6 -5 -7 -5 -6 -7 -5 -4 -4 -3 -3 -4 -4 -4 -4 -5 -6 -7 -8 -11 -10 -9 -8 -8 -9 -10 -10 -10 -9 -9 -9 -9 -10 -11 -11 -11 -11 -12 -12 -13 -14 -18 -22 -23 -24 -25 -26 -24 -23 -23 -21 -19 -18
-6 -6 -6 -5 -5 -5 -5 -4 -4 -4 -5 -7 -4 -6 -4 -6 -9 -8 -10 -11 -12 -12 -11 -11 -11 -10 -11 -11 -11 -11 -11 -11 -10 -10 -11 -11 -12 -12 -13 -13 -13 -15 -19 -24 -26 -27 -27 -26 -25 -24 -22 -20 -19 -19
-5 -5 -6 -5 -4 -4 -5 -6 -5 -6 -6 -5 -5 -5 -5 -8 -9 -10 -12 -13 -13 -13 -12 -12 -12 -12 -13 -13 -12 -12 -12 -12 -12 -12 -13 -13 -13 -15 -18 -20 -21 -23 -26 -26 -25 -24 -24 -24 -23 -23 -22 -21 -19 -20
-5 -5 -5 -7 -7 -6 -7 -8 -8 -7 -7 -7 -6 -9 -11 -11 -11 -12 -12 -13 -13 -13 -13 -13 -13 -13 -13 -13 -13 -13 -13 -14 -14 -14 -14 -16 -18 -18 -20 -24 -25 -25 -23 -22 -21 -21 -21 -21 -20 -20 -20 -20 -20 -21
-6 -5 -6 -6 -7 -7 -6 -7 -7 -9 -9 -8 -10 -11 -13 -14 -13 -13 -13 -13 -13 -13 -14 -14 -14 -14 -14 -16 -18 -17 -16 -16 -16 -16 -15 -15 -16 -20 -24 -23 -21 -20 -20 -21 -20 -20 -20 -21 -21 -21 -21 -21 -21 -21
-6 -5 -8 -8 -9 -8 -9 -10 -10 -10 -11 -13 -14 -14 -15 -15 -15 -14 -14 -14 -15 -15 -15 -15 -14 -15 -15 -17 -19 -21 -21 -21 -23 -24 -25 -25 -24 -23 -22 -21 -21 -21 -21 -20 -20 -21 -21 -21 -21 -22 -22 -22 -22 -22
-7 -6 -7 -7 -7 -9 -10 -11 -12 -13 -13 -13 -14 -16 -16 -16 -16 -15 -16 -15 -15 -15 -16 -18 -19 -19 -19 -19 -19 -19 -21 -23 -25 -24 -23 -22 -22 -22 -22 -21 -21 -21 -21 -21 -21 -21 -21 -22 -22 -22 -22 -22 -23 -23
-8 -7 -6 -8 -7 -8 -9 -9 -9 -10 -11 -12 -13 -14 -13 -14 -16 -16 -16 -16 -16 -17 -17 -18 -19 -19 -19 -20 -23 -24 -24 -23 -22 -23 -24 -24 -24 -23 -23 -22 -22 -22 -22 -22 -21 -21 -21 -22 -23 -23 -23 -23 -23 -23
-9 -10 -9 -8 -7 -8 -10 -8 -10 -10 -11 -12 -12 -14 -15 -16 -16 -17 -17 -18 -19 -19 -19 -19 -18 -18 -19 -23 -24 -23 -22 -22 -23 -24 -25 -25 -25 -25 -25 -25 -25 -24 -23 -23 -23 -22 -22 -22 -23 -23 -23 -23 -23 -24

GFSWCAN_850_dewp_060.txt.gz
Dewpoint
2 1 -0 -1 -1 -1 -2 -5 -5 -6 -6 -6 -4 -6 -5 0 2 1 0 1 2 4 6 5 3 2 1 -0 6 7 6 6 6 6 6 6 3 4 4 4 3 3 4 4 3 1 3 -1 -3 -1 -1 1 2 2
-1 -1 -1 -1 -1 -2 -5 -5 -7 -7 -7 -7 -6 -5 -0 1 1 0 1 1 2 2 5 5 7 3 -0 -1 3 6 4 6 6 6 5 5 6 3 3 6 4 4 2 3 4 3 0 -0 -0 0 -0 1 2 2
-1 -1 -1 -2 -3 -5 -4 -8 -10 -9 -3 -1 -3 -1 1 1 -0 -1 -0 0 1 3 4 6 7 7 3 1 1 4 6 4 5 3 6 6 5 4 4 3 4 3 4 5 4 2 3 2 1 0 -0 0 2 2
-4 -4 -5 -6 -6 -5 -5 -8 -7 -5 -0 -0 -1 -0 0 -2 -4 -2 -0 1 2 4 5 7 7 6 7 3 3 3 3 5 7 6 5 4 4 4 3 3 3 3 2 3 5 4 4 4 3 2 2 1 1 1
-2 -3 -3 -4 -3 -3 -2 -1 -0 -0 -0 -1 -2 -3 -5 -4 -2 0 -0 0 4 4 5 7 6 6 7 6 4 4 4 5 7 3 2 5 5 4 3 2 3 1 2 3 3 3 2 4 4 2 2 1 1 1
-5 -4 -2 -1 -0 -1 -1 -2 -3 -4 -4 -6 -7 -6 -3 -1 -1 1 1 0 2 2 3 5 7 7 8 7 5 5 6 4 6 7 6 5 5 3 2 2 3 3 2 -0 4 3 3 3 2 1 1 0 -0 -0
-9 -8 -8 -8 -9 -9 -8 -8 -8 -7 -6 -6 -5 -5 -1 -1 -1 0 0 3 2 1 2 4 5 7 7 7 7 7 6 6 5 6 7 5 6 3 2 3 3 4 3 3 3 2 1 1 -0 0 0 -1 -2 -3
-8 -8 -8 -8 -9 -9 -8 -8 -7 -6 -5 -5 -4 -2 -0 1 1 1 4 5 4 3 3 3 5 6 6 6 6 7 6 5 5 5 6 4 5 3 3 4 3 4 3 2 2 3 1 0 -1 -1 -1 -1 -2 -3
-8 -8 -8 -9 -9 -6 -7 -9 -7 -5 -4 -3 -0 0 1 2 2 0 3 5 5 5 3 3 5 5 5 5 5 5 4 3 4 3 3 3 2 3 3 3 2 3 3 2 2 1 -1 -1 -1 -1 -2 -3 -3 -4
-8 -8 -8 -5 -3 -3 -3 -3 -3 -1 -1 0 0 1 2 3 3 1 3 4 4 2 4 2 4 4 5 4 3 3 3 2 5 2 4 1 3 2 3 2 2 1 1 2 1 1 0 0 -1 -2 -2 -3 -4 -5
-3 -1 -1 -2 -3 -3 -1 -0 -1 -0 -0 0 2 4 4 3 3 3 3 3 2 1 3 4 3 4 5 3 2 3 2 1 4 4 3 4 3 2 2 2 1 1 1 1 1 1 0 -1 -2 -3 -3 -4 -5 -6
1 0 0 0 -0 -0 -2 -2 -1 0 1 3 4 4 3 4 4 3 2 1 1 2 2 3 3 4 4 3 2 2 2 2 3 2 3 4 2 2 2 2 1 1 1 0 0 0 -1 -2 -3 -3 -4 -6 -12 -15
3 3 2 2 1 1 0 -0 0 1 4 4 3 3 3 2 3 2 3 2 2 1 3 3 2 3 2 2 1 2 3 3 0 2 3 1 2 2 2 1 1 1 0 0 -0 -1 -2 -4 -4 -4 -9 -14 -14 -15
4 3 3 3 2 2 2 4 3 3 2 3 2 2 2 3 1 1 2 2 1 2 2 2 1 1 2 2 1 3 2 1 0 0 2 2 1 1 1 1 1 -0 0 -0 -2 -3 -4 -3 -8 -12 -14 -13 -15 -17
4 4 4 4 4 4 4 5 4 2 1 1 1 1 0 -1 -0 0 1 1 2 2 1 1 1 1 1 2 1 1 3 3 1 1 1 2 1 1 0 0 -0 -1 -2 -4 -5 -5 -6 -11 -11 -10 -12 -15 -16 -17
3 3 4 4 4 4 4 3 1 1 -0 -0 -1 0 -0 0 0 0 1 1 2 3 2 1 1 1 2 2 2 2 2 2 2 0 1 1 1 0 -1 -2 -4 -4 -5 -5 -6 -9 -12 -11 -12 -14 -15 -16 -17 -18
2 3 4 4 4 4 3 2 1 -2 -1 -1 -2 -1 -1 -1 -1 -1 0 1 2 1 1 -2 1 2 0 2 2 1 1 -0 -0 0 0 -0 -0 -1 -2 -4 -4 -5 -8 -12 -12 -12 -11 -12 -14 -14 -15 -15 -16 -17
3 3 3 3 3 3 3 0 -2 -3 -2 -2 -3 -2 -2 -2 -1 -1 -0 1 1 1 0 0 0 0 1 1 1 -1 -2 -1 -1 -1 -1 -1 -2 -3 -3 -4 -4 -7 -10 -9 -9 -9 -11 -13 -13 -14 -14 -15 -16 -18
-2 2 3 3 3 2 -1 -1 -2 -2 -2 -2 -2 -2 -2 -3 -3 -2 -1 -0 -0 0 -1 -3 -4 -3 -2 -2 -2 -2 -2 -2 -2 -3 -3 -3 -3 -3 -3 -3 -4 -5 -6 -7 -9 -11 -12 -12 -13 -13 -15 -18 -21 -22
-5 -3 2 2 -1 -3 -2 -2 -2 -2 -2 -2 -2 -2 -2 -3 -4 -4 -3 -3 -3 -4 -4 -4 -4 -4 -4 -3 -2 -2 -3 -2 -3 -3 -3 -3 -3 -3 -3 -4 -4 -5 -6 -7 -9 -9 -10 -9 -9 -13 -21 -23 -22 -23
-12 -9 -4 -3 -5 -4 -2 -2 -2 -2 -2 -2 -2 -2 -3 -5 -5 -5 -6 -7 -7 -5 -4 -6 -6 -6 -4 -3 -3 -3 -3 -2 -3 -4 -5 -5 -4 -4 -5 -5 -5 -6 -7 -7 -8 -9 -9 -9 -13 -20 -25 -25 -25 -23
-15 -13 -10 -7 -5 -4 -3 -2 -2 -2 -2 -2 -2 -2 -2 -3 -5 -6 -8 -7 -6 -6 -6 -7 -7 -6 -5 -5 -4 -3 -3 -3 -4 -4 -5 -5 -6 -6 -7 -7 -7 -8 -9 -9 -10 -10 -11 -16 -21 -23 -23 -23 -22 -21
-20 -16 -10 -8 -7 -6 -4 -3 -3 -2 -2 -2 -2 -2 -3 -3 -4 -7 -7 -8 -9 -9 -7 -7 -7 -7 -7 -6 -5 -5 -5 -5 -5 -6 -6 -6 -7 -8 -8 -9 -9 -9 -10 -11 -12 -13 -16 -20 -22 -23 -23 -23 -23 -23
-11 -7 -6 -4 -5 -5 -5 -5 -3 -2 -3 -3 -3 -4 -4 -4 -9 -8 -8 -10 -11 -9 -8 -9 -8 -8 -7 -7 -8 -8 -8 -7 -8 -8 -9 -8 -9 -10 -10 -11 -11 -12 -12 -12 -13 -16 -20 -22 -23 -24 -23 -23 -23 -22
-10 -7 -7 -9 -6 -8 -10 -6 -7 -6 -5 -5 -5 -5 -4 -6 -7 -8 -9 -11 -12 -11 -11 -10 -10 -10 -10 -10 -10 -10 -10 -9 -9 -10 -11 -11 -11 -11 -12 -12 -12 -13 -13 -14 -18 -23 -24 -25 -25 -24 -24 -24 -22 -21
-7 -5 -6 -6 -6 -6 -5 -6 -7 -7 -9 -6 -5 -5 -8 -10 -11 -10 -12 -12 -13 -13 -12 -12 -11 -12 -12 -11 -11 -11 -12 -11 -11 -12 -12 -12 -12 -12 -13 -13 -14 -16 -21 -24 -26 -26 -25 -25 -25 -24 -24 -23 -21 -20
-7 -7 -6 -6 -5 -5 -7 -6 -7 -9 -9 -8 -7 -9 -12 -12 -12 -11 -13 -13 -13 -13 -13 -12 -12 -13 -13 -13 -13 -13 -12 -12 -12 -13 -13 -13 -14 -16 -20 -23 -24 -24 -24 -24 -24 -23 -23 -22 -22 -21 -21 -21 -21 -20
-5 -5 -7 -7 -8 -8 -11 -12 -10 -9 -10 -8 -12 -14 -15 -15 -13 -13 -13 -13 -13 -13 -13 -13 -13 -13 -13 -13 -13 -13 -14 -14 -14 -15 -16 -18 -19 -20 -23 -25 -25 -23 -22 -22 -21 -21 -21 -21 -21 -20 -21 -21 -21 -21
-6 -6 -8 -10 -8 -9 -9 -11 -10 -10 -11 -10 -16 -15 -14 -15 -14 -14 -13 -13 -14 -14 -14 -15 -15 -18 -18 -16 -16 -16 -16 -17 -17 -21 -22 -24 -24 -24 -24 -22 -22 -21 -21 -21 -21 -21 -20 -21 -21 -21 -21 -21 -22 -22
-6 -7 -9 -9 -14 -12 -10 -11 -12 -14 -14 -15 -15 -15 -16 -15 -15 -15 -15 -14 -14 -15 -15 -15 -15 -15 -18 -20 -21 -20 -21 -23 -25 -24 -24 -23 -22 -22 -22 -22 -22 -22 -22 -22 -21 -22 -21 -21 -21 -22 -22 -22 -22 -23
-8 -9 -9 -8 -10 -11 -13 -14 -14 -15 -15 -16 -17 -17 -16 -16 -16 -16 -16 -16 -16 -16 -17 -17 -16 -17 -19 -20 -21 -23 -24 -24 -24 -24 -24 -24 -24 -24 -23 -23 -23 -23 -23 -23 -23 -22 -22 -21 -21 -22 -22 -23 -23 -23
-8 -7 -9 -11 -9 -11 -10 -12 -13 -13 -14 -15 -15 -15 -15 -17 -17 -17 -18 -17 -17 -17 -19 -19 -19 -20 -20 -22 -24 -24 -24 -24 -24 -26 -26 -26 -26 -26 -25 -25 -26 -26 -26 -25 -24 -23 -22 -22 -22 -22 -23 -23 -23 -23
-11 -11 -9 -8 -9 -9 -9 -9 -11 -12 -12 -12 -13 -15 -16 -17 -17 -18 -18 -18 -19 -19 -19 -18 -18 -18 -20 -23 -23 -23 -24 -25 -26 -27 -27 -26 -26 -26 -26 -25 -25 -25 -25 -24 -24 -23 -23 -23 -23 -23 -23 -23 -24 -25

GFSWCAN_850_dewp_063.txt.gz
Dewpoint
1 -1 -1 -2 -1 1 0 -0 -0 -1 -2 -4 -4 -6 -5 -2 -1 -1 0 2 3 3 4 5 4 4 2 2 3 5 6 6 5 5 5 4 3 4 4 3 3 4 4 3 1 -0 4 -1 -2 -3 -2 -1 -0 0
2 2 1 1 1 -0 -0 -1 -1 -2 -4 -4 -4 -3 -2 -1 -1 -1 0 1 2 2 3 4 5 4 4 2 1 5 3 6 5 6 4 5 5 3 3 5 2 2 2 4 3 3 1 -0 -3 -3 -2 -1 2 0
0 0 -0 -0 -0 -1 -1 -1 -2 -4 -5 -4 -3 -2 -2 -4 -3 -1 0 1 1 1 2 3 5 5 6 4 1 3 5 5 5 4 5 5 5 3 5 4 4 3 2 3 2 2 2 2 0 -1 -0 -0 1 1
-1 -1 -1 -1 -1 -1 -2 -3 -4 -5 -4 -4 -3 -5 -7 -5 -4 -0 1 1 1 2 4 6 7 6 7 5 1 -0 1 4 5 6 5 4 4 3 4 3 4 3 3 4 4 4 3 3 2 1 1 1 2 3
-1 -2 -2 -2 -3 -4 -5 -6 -6 -4 -5 -6 -7 -7 -5 -1 -2 1 1 0 -0 1 3 4 7 7 6 5 2 1 3 4 6 4 2 4 4 4 3 3 3 2 3 4 4 3 2 3 2 1 1 2 2 2
-6 -5 -5 -5 -5 -6 -7 -8 -7 -7 -6 -5 -3 -2 -2 1 1 1 -0 1 2 1 2 3 7 7 8 5 4 3 5 6 6 6 5 5 5 3 2 3 1 2 1 1 1 3 2 3 2 1 1 1 1 0
-2 -4 -4 -4 -4 -4 -4 -3 -2 -1 -2 -2 -1 -1 0 0 -1 -1 -1 -1 1 2 2 2 4 7 7 8 7 7 7 6 5 6 6 5 6 3 1 2 3 4 3 1 2 2 2 3 1 1 1 0 -0 -1
-4 -4 -3 -2 -2 -1 -1 -1 -1 -1 -1 -1 -1 -1 -2 -1 -1 1 4 1 -1 2 3 2 4 5 7 6 6 6 6 5 6 6 6 4 5 3 5 3 4 2 2 2 2 2 1 1 0 -1 -1 -2 -3 -4
-9 -10 -9 -8 -7 -6 -5 -4 -3 -4 -3 -3 -3 -2 -1 -0 -2 -2 4 4 1 2 2 2 4 5 5 5 5 4 5 3 4 2 2 4 3 5 4 4 3 2 2 1 2 1 1 0 -1 -2 -2 -3 -3 -4
-9 -9 -9 -9 -10 -9 -7 -6 -4 -4 -4 -2 -1 -2 1 1 -2 3 2 4 4 4 4 2 4 4 4 3 2 3 3 3 4 3 4 0 3 2 2 3 3 2 2 2 0 -0 -0 -1 -1 -2 -2 -2 -3 -3
-10 -10 -8 -7 -8 -10 -7 -5 -4 -1 -1 -0 0 1 1 2 1 1 1 0 1 2 3 4 4 4 4 3 2 2 2 1 5 4 4 4 4 1 3 3 3 2 2 2 2 1 -0 -0 -1 -2 -3 -4 -5 -7
-3 -5 -6 -5 -8 -8 -8 -8 -6 -3 -0 -1 2 3 3 3 2 2 1 0 1 2 2 3 3 4 3 3 2 1 2 1 5 2 4 5 1 2 2 2 2 2 2 1 1 0 0 -0 -1 -2 -4 -5 -6 -8
-2 -3 -3 -3 -3 -3 -4 -1 -0 -1 -0 2 4 3 2 1 3 3 3 2 2 1 2 3 2 3 2 2 1 1 3 2 1 4 4 2 2 2 2 1 1 1 1 1 0 1 1 -2 -2 -3 -5 -6 -10 -14
-0 -1 -1 -2 -2 -1 -4 -3 -1 -1 -1 3 2 2 2 2 1 1 2 2 1 2 2 2 1 1 2 1 1 2 1 2 2 1 1 1 2 1 1 1 1 1 0 1 1 -1 -2 -3 -3 -5 -7 -12 -15 -16
1 1 0 1 -0 -2 -3 -2 -1 -0 1 0 1 1 0 -1 -0 -0 0 1 1 2 2 1 1 1 1 1 -0 2 3 3 1 -1 1 1 1 0 -0 0 1 1 0 -1 -2 -3 -4 -4 -4 -7 -13 -16 -17 -17
3 2 2 1 1 -0 0 -0 -0 -0 0 -0 -1 0 -0 0 0 -0 1 1 2 2 1 0 0 1 2 1 1 0 2 2 0 0 1 1 1 0 -0 -0 -1 -1 -2 -3 -4 -2 -3 -6 -12 -14 -14 -16 -17 -18
3 3 3 3 2 2 1 0 -1 -2 -2 -2 -2 -2 -1 -1 -1 -1 -0 1 1 1 0 -3 0 2 0 1 1 0 0 -1 -1 -0 -0 -0 -0 -1 -2 -2 -2 -2 -3 -3 -3 -4 -8 -11 -11 -9 -15 -17 -17 -17
3 3 3 4 3 2 0 -2 -3 -3 -2 -2 -2 -2 -3 -3 -2 -2 -1 1 1 1 0 1 -1 -0 0 1 -0 -1 -2 -2 -2 -2 -2 -1 -1 -2 -2 -3 -3 -3 -3 -6 -9 -9 -7 -7 -9 -15 -15 -15 -15 -16
3 3 4 4 3 2 -1 -2 -3 -2 -2 -2 -2 -2 -3 -4 -4 -3 -2 -3 -3 -3 -5 -5 -5 -4 -3 -3 -2 -2 -2 -3 -3 -3 -3 -3 -3 -3 -3 -3 -5 -8 -7 -6 -7 -7 -7 -8 -12 -13 -11 -10 -15 -17
1 2 2 2 3 -0 -2 -2 -2 -2 -2 -3 -4 -5 -5 -5 -5 -5 -4 -4 -4 -5 -5 -5 -5 -5 -4 -4 -3 -3 -3 -3 -3 -4 -4 -4 -3 -3 -4 -4 -5 -5 -5 -6 -7 -8 -9 -9 -9 -9 -11 -16 -19 -19
-4 -3 -5 -3 -5 -4 -2 -2 -2 -2 -2 -2 -3 -4 -5 -6 -6 -7 -7 -7 -7 -5 -6 -8 -8 -7 -5 -4 -4 -3 -3 -3 -4 -4 -5 -6 -5 -4 -5 -5 -6 -6 -7 -8 -8 -9 -9 -9 -10 -11 -15 -22 -24 -24
-11 -8 -7 -6 -5 -4 -3 -2 -2 -2 -2 -2 -3 -4 -4 -5 -6 -7 -10 -9 -9 -10 -8 -9 -9 -8 -6 -6 -6 -5 -4 -4 -4 -5 -5 -6 -6 -6 -7 -7 -7 -8 -9 -9 -10 -10 -11 -11 -13 -16 -17 -17 -21 -21
-19 -14 -9 -8 -6 -4 -3 -2 -2 -2 -2 -2 -3 -3 -3 -4 -6 -10 -9 -10 -11 -11 -9 -9 -9 -8 -8 -8 -6 -6 -6 -5 -6 -6 -7 -7 -8 -8 -8 -9 -9 -10 -10 -11 -12 -12 -12 -13 -13 -14 -16 -21 -22 -21
-13 -9 -6 -6 -6 -7 -6 -4 -3 -3 -3 -4 -4 -4 -4 -6 -8 -9 -10 -11 -12 -11 -10 -9 -9 -8 -8 -8 -9 -9 -8 -8 -8 -9 -9 -9 -9 -10 -10 -11 -11 -12 -12 -13 -13 -13 -13 -14 -17 -22 -23 -23 -23 -23
-10 -7 -8 -10 -7 -9 -9 -8 -6 -4 -5 -5 -5 -4 -5 -7 -8 -9 -11 -12 -13 -12 -12 -11 -10 -10 -11 -11 -11 -10 -10 -10 -10 -11 -11 -11 -11 -12 -12 -12 -13 -13 -13 -15 -19 -23 -25 -25 -24 -24 -24 -24 -23 -22
-9 -5 -6 -6 -7 -7 -8 -9 -7 -8 -7 -6 -6 -7 -10 -10 -11 -11 -12 -13 -14 -14 -13 -12 -12 -12 -12 -12 -12 -12 -12 -11 -11 -12 -12 -12 -13 -13 -13 -15 -18 -21 -23 -24 -24 -24 -23 -23 -22 -22 -22 -21 -21 -21
-8 -7 -6 -8 -6 -6 -9 -9 -10 -11 -10 -9 -10 -12 -13 -13 -12 -12 -13 -14 -14 -14 -13 -13 -13 -13 -13 -13 -13 -12 -12 -12 -13 -13 -14 -15 -18 -21 -23 -24 -23 -23 -23 -23 -22 -22 -22 -22 -22 -22 -21 -21 -21 -21
-6 -6 -9 -9 -10 -10 -12 -14 -12 -11 -11 -10 -15 -17 -17 -17 -14 -14 -14 -14 -14 -14 -14 -14 -13 -13 -13 -14 -14 -15 -15 -15 -16 -18 -19 -20 -23 -24 -24 -23 -22 -22 -22 -22 -22 -22 -22 -22 -22 -22 -22 -21 -21 -22
-7 -7 -10 -13 -12 -11 -11 -12 -13 -13 -13 -13 -18 -18 -15 -16 -15 -14 -14 -14 -14 -14 -15 -17 -19 -17 -16 -15 -17 -19 -20 -20 -20 -24 -24 -24 -24 -24 -23 -24 -24 -23 -23 -23 -23 -22 -21 -21 -21 -21 -21 -22 -22 -22
-9 -10 -10 -11 -15 -14 -14 -15 -16 -15 -15 -15 -16 -16 -16 -16 -15 -15 -15 -15 -14 -15 -15 -15 -15 -18 -21 -20 -21 -22 -24 -25 -25 -25 -25 -26 -26 -26 -26 -26 -26 -25 -25 -25 -25 -25 -24 -23 -23 -22 -22 -22 -22 -22
-8 -12 -11 -12 -13 -14 -15 -16 -16 -16 -16 -17 -17 -17 -17 -17 -17 -17 -17 -16 -16 -16 -16 -16 -17 -20 -21 -23 -24 -24 -24 -25 -26 -27 -28 -27 -27 -27 -27 -26 -26 -26 -26 -26 -26 -26 -25 -24 -24 -23 -23 -23 -23 -23
-9 -10 -10 -14 -12 -12 -12 -14 -15 -15 -15 -15 -16 -16 -16 -18 -18 -18 -18 -18 -17 -18 -20 -19 -19 -20 -21 -24 -25 -25 -27 -28 -28 -28 -27 -27 -27 -26 -26 -25 -25 -25 -25 -25 -24 -24 -24 -23 -23 -23 -23 -24 -24 -24
-11 -10 -9 -10 -11 -11 -11 -11 -12 -13 -13 -13 -15 -16 -17 -18 -18 -19 -19 -18 -18 -18 -18 -18 -18 -19 -23 -24 -25 -27 -28 -28 -27 -27 -26 -26 -25 -25 -25 -25 -25 -24 -24 -24 -24 -23 -23 -23 -24 -24 -24 -24 -24 -24

GFSWCAN_850_dewp_066.txt.gz
Dewpoint
-0 -0 -0 0 0 -0 -1 -2 2 1 0 0 0 -1 -2 -5 -5 -2 -5 -1 -1 2 2 3 2 1 1 1 2 1 3 3 4 3 3 3 3 4 4 4 5 5 5 3 1 2 5 -2 -2 -3 -2 -3 -3 -2
0 -0 -0 -1 0 -1 -1 -0 1 0 0 -0 -0 -1 -3 -4 -5 -2 -2 -2 1 2 2 3 4 2 1 0 -0 1 1 4 4 4 3 3 4 3 3 5 1 5 4 4 3 4 1 -2 -3 -4 -4 -4 -1 -3
-1 -0 -0 -0 -1 -2 -2 1 0 0 -0 -0 -1 -2 -3 -4 -4 -3 -1 -1 1 2 1 2 4 3 2 2 1 3 2 4 4 4 4 5 4 3 5 4 5 2 1 2 2 1 1 0 -1 -1 -3 -3 -2 -2
-1 -1 -1 -1 -1 1 0 -0 -0 -0 -0 -1 -2 -3 -4 -3 -1 -1 -1 0 1 1 2 4 6 6 5 5 2 1 2 2 5 5 4 4 5 3 4 3 3 3 3 3 2 3 3 3 1 -1 -1 -0 -0 -1
-1 -1 -1 -1 -1 -0 -1 -1 -0 -1 -1 -3 -4 -5 -2 -2 -3 -1 -1 -0 1 1 2 2 4 7 7 5 5 3 2 5 5 4 2 4 4 4 3 3 3 3 3 4 3 0 0 0 -0 -0 1 1 0 -0
-2 -1 -1 -1 -1 -1 -1 -1 -2 -4 -4 -4 -3 -2 -3 -4 -3 -0 0 -2 -0 1 1 2 4 7 7 5 4 3 2 2 3 5 3 5 5 4 3 3 1 1 2 1 1 0 1 0 1 1 1 2 2 2
-4 -4 -4 -4 -4 -4 -4 -4 -5 -4 -3 -3 -4 -3 -6 -4 -1 -0 1 -1 1 0 1 1 3 7 7 7 7 7 6 5 5 6 5 5 6 2 0 3 2 3 3 2 2 2 2 2 1 1 1 2 2 1
-5 -6 -6 -6 -6 -6 -5 -4 -4 -5 -5 -6 -6 -5 -3 -1 -1 1 3 1 0 1 2 1 3 5 6 6 5 6 6 6 5 5 5 3 5 3 5 2 3 2 2 2 2 2 1 2 1 0 0 0 -0 -1
-1 -1 -2 -2 -4 -5 -4 -6 -6 -6 -5 -3 -2 -0 -0 0 0 0 -0 2 2 -0 1 1 4 5 5 5 5 5 5 3 4 3 3 4 2 5 4 3 3 2 2 2 2 1 1 2 0 -0 -1 -1 -1 -2
-6 -4 -1 -1 -1 -1 -1 -4 -3 -1 -1 -1 -0 -1 -0 -1 -2 1 2 1 2 2 2 2 4 4 4 3 2 3 3 3 5 3 4 3 4 3 3 3 3 2 2 2 1 0 -0 -1 -1 -1 -1 -2 -2 -3
-7 -7 -5 -4 -3 -2 -1 -1 -1 0 -0 -1 -1 1 -1 1 1 1 0 1 1 1 3 3 4 4 4 3 2 2 2 1 5 4 4 4 4 2 3 3 3 3 2 2 2 1 0 -0 -1 -2 -3 -3 -3 -3
-10 -10 -10 -5 -3 -2 -1 -1 -0 -0 -1 -0 1 1 0 1 2 1 1 -0 1 2 2 3 3 3 3 2 1 1 3 2 5 2 4 5 2 2 3 3 3 2 2 1 1 1 0 -0 -1 -2 -3 -2 -1 -3
-9 -5 -8 -5 -3 -3 -2 -0 -1 -1 1 2 1 1 2 1 2 2 3 1 2 1 2 2 2 2 2 1 1 2 3 3 1 4 4 2 2 2 2 2 2 2 1 1 0 -0 -0 -1 -2 -2 -0 -2 -5 -8
-6 -3 -5 -3 -1 -2 0 -0 -1 -1 -1 0 1 2 1 2 2 1 2 1 1 2 2 2 1 1 1 1 1 3 1 1 3 3 2 -0 1 1 1 1 1 1 0 0 -0 -1 -1 -0 -0 -1 -4 -7 -6 -9
-3 -3 -3 -1 -2 -2 -2 -1 -2 -1 -1 -1 -0 1 0 -1 -0 -0 0 1 1 1 2 1 1 1 0 1 0 2 2 2 0 -1 -0 0 0 0 0 1 0 -0 -0 0 1 0 -1 -2 -3 -5 -5 -5 -11 -18
-1 -1 -1 -2 -2 -1 -1 -1 -1 -1 -1 -1 -2 0 -0 0 -0 -1 0 0 1 1 0 -0 0 1 1 1 -1 0 -1 -1 0 -0 -0 -1 -1 -1 -1 -1 -1 -0 0 -1 -2 -2 -3 -4 -4 -5 -11 -18 -16 -12
0 0 0 -1 -2 -2 -2 -2 -1 -1 -2 -2 -2 -3 -2 -1 -2 -2 -1 -0 1 1 0 -2 1 2 0 1 1 0 -0 -1 -1 -2 -1 -1 -1 -2 -2 -2 -2 -3 -3 -4 -4 -4 -4 -5 -8 -12 -9 -11 -16 -19
1 1 1 0 -0 -1 -1 -1 -2 -2 -2 -2 -3 -3 -4 -4 -4 -3 -3 -0 0 0 -1 -1 -2 -1 -1 0 -1 -1 -2 -3 -3 -3 -3 -3 -2 -3 -3 -3 -4 -4 -4 -4 -5 -6 -8 -10 -7 -7 -9 -15 -16 -14
1 1 1 1 0 0 -1 -1 -2 -2 -3 -3 -4 -4 -4 -5 -5 -4 -4 -5 -5 -5 -6 -6 -5 -4 -4 -3 -2 -3 -3 -4 -5 -5 -5 -4 -4 -3 -4 -4 -4 -5 -5 -6 -6 -7 -7 -7 -8 -9 -11 -11 -9 -10
2 1 1 1 0 -1 -2 -2 -2 -3 -2 -5 -6 -6 -6 -7 -6 -6 -6 -5 -6 -7 -7 -7 -7 -7 -7 -6 -4 -4 -4 -5 -4 -5 -6 -6 -5 -4 -5 -5 -5 -5 -6 -7 -7 -7 -8 -9 -9 -9 -10 -10 -11 -15
-4 -2 -2 -1 -2 -2 -2 -2 -2 -2 -3 -4 -5 -5 -6 -7 -8 -8 -8 -8 -9 -8 -8 -9 -9 -9 -7 -6 -4 -4 -4 -4 -6 -7 -7 -7 -7 -6 -6 -6 -6 -7 -7 -8 -9 -9 -9 -10 -11 -11 -12 -15 -20 -19
-8 -7 -6 -5 -4 -3 -3 -2 -2 -2 -3 -3 -4 -5 -5 -6 -7 -8 -11 -11 -11 -11 -10 -10 -10 -10 -8 -7 -7 -6 -6 -5 -6 -6 -7 -7 -7 -7 -8 -8 -8 -9 -9 -10 -10 -10 -11 -11 -12 -12 -13 -13 -13 -14
-17 -12 -8 -7 -5 -4 -3 -2 -2 -2 -3 -3 -4 -4 -5 -7 -8 -11 -10 -11 -12 -12 -11 -10 -10 -10 -10 -9 -7 -7 -7 -6 -7 -7 -8 -8 -9 -9 -9 -10 -10 -10 -11 -12 -12 -12 -12 -13 -13 -13 -15 -17 -20 -22
-13 -9 -7 -7 -7 -8 -5 -4 -3 -3 -4 -4 -4 -4 -6 -7 -9 -10 -11 -12 -13 -12 -11 -10 -10 -9 -9 -8 -9 -9 -9 -8 -9 -10 -10 -9 -10 -11 -11 -11 -12 -12 -13 -13 -13 -14 -15 -19 -22 -24 -24 -25 -25 -24
-9 -7 -8 -10 -7 -10 -10 -8 -6 -5 -5 -5 -5 -6 -7 -8 -10 -10 -11 -13 -14 -13 -13 -12 -11 -11 -12 -11 -11 -11 -10 -10 -10 -11 -12 -12 -12 -12 -13 -13 -14 -15 -19 -22 -24 -25 -25 -24 -24 -23 -23 -23 -22 -22
-9 -6 -7 -8 -6 -8 -9 -10 -9 -8 -7 -6 -7 -9 -10 -10 -12 -12 -13 -14 -14 -14 -13 -13 -13 -12 -12 -12 -12 -12 -12 -12 -12 -13 -13 -13 -14 -17 -20 -22 -23 -22 -24 -24 -24 -23 -23 -23 -23 -23 -23 -22 -22 -22
-9 -9 -8 -10 -8 -8 -11 -11 -11 -12 -11 -11 -11 -12 -12 -12 -12 -13 -14 -14 -14 -14 -13 -13 -13 -13 -13 -13 -13 -13 -14 -14 -15 -17 -19 -21 -22 -23 -24 -24 -24 -23 -23 -23 -24 -25 -25 -25 -24 -24 -24 -23 -22 -22
-7 -9 -12 -12 -12 -12 -16 -15 -14 -13 -13 -12 -16 -16 -17 -18 -14 -14 -15 -15 -14 -14 -14 -14 -14 -14 -14 -14 -15 -17 -18 -18 -19 -21 -23 -24 -25 -24 -25 -25 -25 -25 -25 -25 -25 -25 -25 -25 -24 -23 -23 -22 -22 -22
-9 -10 -12 -16 -14 -14 -14 -15 -16 -16 -15 -15 -20 -19 -17 -17 -16 -15 -15 -15 -15 -15 -15 -16 -15 -15 -16 -18 -20 -21 -22 -24 -24 -25 -26 -26 -26 -27 -28 -28 -28 -28 -27 -27 -27 -27 -26 -25 -25 -24 -23 -23 -23 -22
-12 -12 -12 -14 -18 -17 -16 -17 -17 -16 -16 -16 -17 -17 -17 -17 -16 -15 -15 -15 -15 -15 -16 -18 -19 -20 -21 -21 -23 -23 -24 -25 -27 -29 -30 -30 -29 -29 -28 -28 -28 -27 -27 -27 -26 -26 -26 -25 -25 -25 -24 -24 -24 -23
-12 -14 -13 -14 -16 -16 -16 -16 -16 -17 -17 -18 -18 -18 -18 -18 -17 -17 -17 -17 -16 -16 -16 -18 -20 -21 -23 -24 -25 -25 -27 -29 -30 -29 -29 -28 -28 -27 -27 -26 -26 -26 -26 -25 -25 -25 -25 -24 -24 -24 -24 -24 -24 -24
-10 -12 -13 -15 -14 -14 -13 -15 -15 -15 -16 -16 -16 -17 -17 -18 -18 -18 -19 -18 -18 -19 -19 -20 -20 -20 -22 -25 -26 -28 -29 -29 -28 -28 -27 -27 -26 -26 -26 -26 -26 -26 -25 -25 -24 -24 -24 -24 -24 -24 -24 -24 -24 -24
-11 -11 -12 -12 -12 -13 -13 -12 -14 -14 -14 -14 -15 -17 -18 -18 -19 -19 -19 -18 -18 -18 -18 -18 -19 -22 -24 -26 -28 -29 -28 -27 -27 -27 -26 -26 -27 -28 -28 -27 -26 -25 -25 -25 -24 -24 -24 -24 -24 -24 -24 -25 -25 -25

GFSWCAN_850_dewp_069.txt.gz
Dewpoint
-1 -1 -0 -1 -1 0 -0 -0 -2 -2 -0 1 1 0 0 -0 -3 -2 -2 -2 -2 0 1 2 1 1 -1 -0 1 1 2 3 4 4 4 4 5 5 6 5 5 6 6 6 4 6 5 -1 -4 0 0 -5 -5 -3
-0 -1 -1 -1 -1 0 -0 -1 -1 -1 1 0 1 0 0 -0 -3 -2 -2 -2 -0 -0 1 1 2 3 -0 -1 -1 1 0 1 3 4 4 4 5 4 5 5 2 6 4 6 4 5 2 -2 -2 -5 -5 -5 -4 -4
-1 -0 -1 -1 -1 -1 -1 -1 -1 0 0 1 0 0 -0 -1 -2 -1 -2 -2 -3 -2 -2 -1 1 3 1 -1 -1 1 1 0 1 1 4 5 5 4 6 5 4 3 2 4 3 2 2 0 -2 -3 -4 -4 -4 -3
-1 -0 0 -0 -1 -2 -0 -1 0 1 0 0 -0 -0 -0 -1 -1 -1 -2 -3 -4 -1 0 1 2 1 3 1 -0 -2 -1 2 3 4 4 4 6 3 5 4 5 3 3 3 4 2 3 1 1 -1 -1 -3 -2 -2
-1 -2 -1 -2 -1 -1 1 1 1 0 0 -0 -0 -0 -0 -1 -1 -2 -4 -5 -6 1 2 0 0 3 5 4 1 -0 -0 2 3 5 3 6 4 4 4 4 5 3 3 4 5 1 0 -1 -1 -0 -1 -2 -1 -2
-1 -0 0 0 1 1 0 0 0 -0 -0 -0 -0 -1 -1 -2 -2 -3 -2 -3 -3 -0 1 2 1 4 6 5 4 2 0 3 5 4 4 5 5 4 6 6 2 1 2 1 1 -0 -1 -1 -2 -0 0 0 0 -1
-1 -1 -1 -0 -0 -0 -0 -0 -0 -1 -1 -1 -1 -3 -4 -4 -2 -1 -1 -3 -3 -1 1 1 2 5 6 7 6 6 5 3 4 4 4 5 5 3 3 6 1 2 2 2 2 2 1 1 1 1 1 2 1 -0
-4 -2 -1 -1 -1 -1 -1 -1 -1 -2 -4 -4 -4 -3 -2 -2 -1 -1 1 -2 -3 -0 1 1 3 4 6 6 5 6 6 5 5 5 4 5 5 3 6 2 3 2 2 2 2 2 1 1 1 1 2 2 1 -0
-5 -5 -4 -4 -3 -3 -4 -4 -4 -3 -3 -3 -4 -3 -2 -1 0 1 1 0 -0 -0 1 1 3 5 5 4 4 5 5 4 4 4 4 5 4 6 4 3 3 2 2 2 2 2 1 1 1 1 1 1 1 -1
-2 -4 -5 -5 -5 -4 -3 -2 -3 -4 -3 -4 -4 -1 -1 -1 0 1 1 1 1 1 1 1 3 4 4 3 2 3 3 3 5 4 4 5 4 3 3 3 3 3 3 3 2 0 0 0 0 -0 -0 -1 -0 -1
-1 -0 -1 -4 -6 -4 -5 -4 -5 -5 -3 -1 -0 0 -0 -0 -1 1 1 1 1 1 2 2 3 4 3 3 3 2 2 2 6 5 6 5 5 2 2 3 3 3 2 1 1 1 1 1 0 0 -1 -1 -1 -2
-3 -1 -1 -2 -6 -6 -3 -4 -4 -2 -0 0 0 1 1 -1 0 1 1 0 2 2 2 2 3 3 3 2 2 1 3 2 6 3 5 5 2 2 2 2 3 3 2 2 1 1 -0 -0 -1 -1 -1 -1 -2 -3
-6 -4 -1 -1 -1 -1 -0 -0 -0 1 1 -0 -1 1 0 1 2 2 1 2 2 1 2 2 2 2 2 1 1 1 3 4 2 4 5 2 2 1 1 2 1 1 1 1 0 -0 -1 -1 -2 -2 -3 -2 -2 -2
-7 -5 -4 -1 -1 -0 -0 -1 -1 1 -0 0 0 2 2 2 2 2 0 1 1 2 2 2 0 2 1 1 1 3 2 2 4 4 3 1 0 0 1 0 0 -0 -0 -0 -1 -1 -2 -3 -3 -2 -2 -2 -3 -4
-2 -3 -4 -3 -1 -1 -1 -2 -1 -1 -1 -1 -0 1 0 -1 -1 -0 -0 0 0 1 2 1 1 1 1 1 1 2 3 3 2 2 1 -1 -1 -1 -1 -1 -1 -1 -1 -1 -2 -2 -2 -2 -2 -4 -4 -4 -5 -8
-2 -2 -2 -1 -1 -1 -1 -2 -1 -1 -1 -2 -3 -1 -1 0 -1 -1 -0 -0 0 1 0 0 1 2 2 0 1 2 1 2 1 -0 -1 -2 -2 -2 -2 -2 -2 -2 -2 -3 -3 -3 -4 -4 -5 -5 -6 -9 -17 -14
-2 -2 -2 -1 -1 -1 -1 -2 -1 -1 -2 -2 -3 -4 -3 -3 -3 -3 -3 -2 0 1 0 -0 2 2 0 1 1 -0 -0 -1 -2 -3 -3 -3 -3 -3 -3 -3 -4 -4 -4 -5 -5 -5 -5 -6 -6 -10 -14 -11 -8 -15
0 -1 -2 -2 -2 -2 -2 -1 -2 -2 -2 -3 -4 -4 -5 -6 -5 -5 -4 -3 -0 -0 -3 -2 -3 -2 -1 -1 -1 -2 -3 -4 -4 -5 -5 -5 -5 -4 -4 -4 -5 -5 -5 -5 -6 -6 -6 -7 -7 -7 -8 -9 -10 -13
-0 -0 -1 -1 -1 -1 -1 -2 -2 -3 -4 -4 -5 -5 -6 -6 -7 -6 -5 -6 -7 -7 -8 -7 -6 -6 -5 -5 -4 -4 -4 -5 -6 -6 -6 -6 -6 -6 -6 -5 -6 -6 -6 -6 -6 -7 -7 -8 -8 -9 -10 -10 -10 -10
-0 -0 -0 -1 -0 -1 -2 -2 -3 -4 -4 -6 -6 -7 -8 -8 -8 -8 -8 -9 -9 -10 -8 -8 -8 -9 -8 -8 -5 -5 -6 -6 -6 -7 -8 -7 -7 -6 -6 -6 -6 -6 -7 -7 -8 -8 -9 -9 -10 -10 -10 -11 -11 -12
-1 -1 -1 -1 -1 -2 -2 -2 -2 -3 -5 -5 -6 -7 -7 -8 -9 -9 -10 -11 -11 -9 -9 -10 -10 -10 -9 -7 -6 -5 -6 -6 -7 -8 -9 -9 -8 -7 -7 -7 -7 -8 -8 -9 -9 -10 -10 -10 -11 -11 -12 -13 -14 -13
-1 -1 -1 -2 -2 -2 -3 -2 -2 -3 -4 -4 -4 -6 -6 -8 -8 -9 -12 -12 -12 -12 -11 -11 -11 -10 -10 -9 -8 -7 -7 -6 -7 -8 -8 -8 -8 -8 -9 -9 -9 -9 -10 -10 -11 -11 -12 -12 -12 -13 -13 -13 -14 -15
-8 -8 -7 -6 -3 -4 -3 -3 -3 -3 -4 -4 -5 -6 -7 -8 -9 -11 -11 -12 -13 -13 -11 -11 -11 -11 -11 -10 -9 -8 -8 -7 -8 -8 -9 -9 -9 -10 -10 -10 -11 -11 -12 -12 -12 -13 -13 -14 -15 -18 -22 -24 -24 -24
-11 -9 -8 -7 -7 -8 -5 -4 -4 -4 -4 -4 -4 -5 -6 -8 -9 -11 -12 -13 -14 -13 -12 -11 -11 -11 -10 -9 -10 -10 -10 -9 -9 -10 -10 -10 -10 -11 -12 -12 -13 -13 -14 -15 -18 -22 -24 -24 -24 -24 -24 -24 -24 -24
-10 -8 -8 -9 -7 -10 -11 -9 -7 -6 -5 -5 -6 -7 -8 -9 -10 -11 -12 -13 -14 -14 -13 -12 -12 -12 -12 -12 -12 -11 -11 -10 -11 -12 -12 -12 -13 -13 -15 -17 -21 -22 -23 -24 -24 -24 -24 -24 -25 -26 -26 -26 -26 -25
-9 -8 -10 -10 -9 -10 -10 -11 -9 -9 -8 -8 -9 -9 -11 -11 -12 -12 -13 -14 -15 -14 -14 -13 -13 -12 -12 -12 -12 -12 -12 -12 -13 -14 -16 -19 -21 -22 -23 -23 -24 -24 -25 -25 -26 -27 -27 -27 -27 -26 -26 -25 -25 -24
-11 -10 -10 -12 -10 -10 -12 -12 -12 -13 -12 -12 -12 -12 -12 -13 -13 -13 -14 -15 -15 -14 -14 -13 -13 -13 -13 -13 -14 -15 -17 -19 -20 -21 -23 -24 -25 -25 -25 -27 -28 -27 -27 -27 -28 -28 -27 -27 -27 -26 -26 -24 -24 -24
-9 -12 -14 -14 -14 -15 -16 -16 -15 -14 -14 -14 -16 -16 -16 -16 -15 -15 -15 -15 -15 -14 -14 -14 -14 -14 -15 -17 -18 -19 -21 -23 -24 -25 -25 -26 -28 -29 -29 -29 -29 -28 -28 -28 -27 -27 -27 -27 -26 -26 -25 -25 -24 -24
-12 -12 -14 -18 -17 -17 -17 -17 -17 -17 -16 -16 -18 -17 -17 -18 -17 -16 -16 -15 -15 -15 -14 -15 -16 -18 -19 -20 -22 -24 -25 -25 -26 -28 -30 -30 -29 -28 -29 -28 -28 -27 -27 -27 -26 -26 -26 -26 -25 -25 -25 -25 -24 -24
-14 -14 -15 -17 -20 -18 -17 -18 -18 -17 -17 -17 -18 -18 -18 -18 -17 -16 -16 -16 -16 -17 -20 -21 -21 -22 -22 -23 -24 -25 -27 -29 -31 -31 -30 -29 -28 -28 -27 -27 -27 -27 -27 -26 -26 -26 -25 -25 -24 -24 -24 -24 -24 -24
-14 -15 -16 -17 -17 -17 -17 -17 -17 -18 -18 -18 -19 -19 -19 -18 -18 -17 -17 -16 -16 -16 -19 -21 -22 -23 -24 -25 -26 -28 -29 -30 -29 -29 -28 -28 -27 -27 -27 -27 -28 -28 -27 -27 -26 -26 -25 -25 -25 -24 -24 -24 -25 -25
-12 -14 -15 -18 -15 -15 -15 -16 -16 -16 -16 -17 -17 -17 -17 -18 -18 -18 -18 -18 -18 -18 -20 -21 -21 -22 -24 -26 -29 -29 -29 -28 -28 -27 -27 -27 -28 -29 -29 -28 -28 -27 -27 -26 -26 -26 -25 -25 -25 -25 -25 -25 -25 -25
-12 -13 -13 -13 -14 -15 -14 -14 -15 -15 -15 -15 -16 -17 -18 -18 -19 -19 -19 -18 -18 -18 -18 -18 -20 -23 -25 -28 -28 -28 -28 -27 -27 -28 -29 -29 -29 -29 -28 -28 -28 -27 -27 -26 -26 -26 -25 -25 -25 -25 -25 -25 -25 -26

GFSWCAN_850_dewp_072.txt.gz
Dewpoint
-0 -0 -1 -1 -1 -1 -1 -0 2 1 0 -1 -1 0 0 1 0 -0 -0 -2 -2 -2 0 0 -1 -1 -0 -3 2 -1 2 3 4 6 7 6 7 3 1 -2 4 6 7 9 6 11 9 -1 -3 0 -1 0 -2 -2
0 -1 -1 -2 -1 -0 0 1 1 1 0 0 -2 1 0 1 0 -0 -0 -1 -1 -1 -0 2 1 2 3 -1 -1 0 -1 0 1 2 6 2 8 8 3 4 2 6 4 5 4 3 2 -2 -2 -2 -0 -2 -1 -1
-1 -0 -1 -0 -0 -0 1 1 2 0 0 -1 -2 1 0 1 0 -1 -1 -2 -1 0 -1 0 -0 -0 1 2 1 0 -1 -3 1 0 4 5 8 5 9 5 2 2 3 5 4 0 1 1 -1 0 -1 -1 -0 0
-1 -0 0 -1 -1 -1 -0 -0 -0 -1 -2 -2 -1 1 0 0 -0 -1 -1 -1 -2 -2 -1 -3 -3 -2 -1 1 2 3 -1 1 1 3 5 6 8 1 3 -0 3 1 2 2 2 1 2 2 2 1 0 -2 -2 -2
-0 -1 -1 -1 -1 -1 -2 -2 -2 -2 0 1 1 0 0 -0 -1 -1 -2 -2 -2 -4 -1 -4 -4 -1 1 2 3 3 3 2 4 5 4 5 2 5 5 4 4 2 2 5 5 1 2 -1 1 0 -0 -1 -1 -2
0 0 0 -0 -0 -1 -1 0 1 1 1 1 0 -0 -0 -1 -1 -2 -1 -3 -2 -2 -0 3 2 -1 -2 2 3 3 2 2 3 2 5 2 5 5 8 6 0 -0 1 1 2 0 1 -0 -1 -1 2 3 2 -0
0 1 1 1 1 1 1 1 1 1 0 -0 -0 -0 -0 -1 -1 -3 -3 -1 -3 -4 -2 2 3 2 1 4 3 3 2 1 3 4 6 5 6 4 7 6 -1 2 2 3 1 1 2 1 2 -0 0 0 1 -0
-1 -0 0 0 0 0 0 -0 -0 -0 -0 -0 -1 -1 -1 -1 -2 -4 -1 -0 -5 -4 0 2 2 2 4 5 5 3 3 3 4 4 5 6 6 5 7 2 1 2 2 3 2 1 2 1 1 1 1 0 -0 -1
-1 -1 -1 -0 -0 -0 -0 -0 -0 -1 -1 -1 -1 -1 -1 -1 -2 -0 0 -2 -5 -1 1 1 2 4 4 4 5 5 5 5 5 6 6 5 6 8 6 2 3 3 2 3 2 2 1 1 1 1 1 -0 -1 -1
-3 -2 -2 -2 -1 -1 -1 -1 -1 -2 -3 -3 -3 -1 -1 -1 -3 -0 1 1 0 0 1 1 1 2 3 2 2 4 4 5 5 5 5 7 6 4 4 4 4 3 3 2 2 1 1 1 1 0 0 -0 -1 -2
-5 -4 -3 -3 -3 -3 -3 -4 -3 -2 -2 -2 -1 -1 -0 1 1 1 0 1 1 1 1 1 0 2 2 2 3 3 4 4 7 6 7 7 6 4 3 3 3 3 3 2 2 1 1 1 0 -0 -1 -1 -1 -2
-6 -5 -3 -2 -2 -2 -2 -3 -3 -2 -2 -1 -2 -0 0 0 1 1 1 1 2 2 2 3 2 2 2 1 2 2 4 2 6 4 7 7 3 2 2 2 2 2 1 1 1 1 0 -0 -0 -1 -2 -2 -2 -2
-4 -5 -5 -5 -4 -4 -3 -4 -3 -0 0 -0 -3 -1 -0 1 1 2 2 2 2 2 2 2 3 2 2 2 1 3 5 5 2 4 5 3 2 1 0 1 0 -0 -0 -1 -1 -1 -1 -1 -1 -2 -2 -2 -3 -3
-5 -5 -2 -2 -3 -4 -3 -2 -1 0 1 0 1 2 3 1 2 3 2 2 2 2 2 2 2 3 1 2 2 5 2 2 6 7 3 2 -1 -1 -1 -2 -2 -3 -2 -2 -2 -2 -2 -3 -3 -3 -3 -4 -3 -4
-1 -1 -1 -1 -1 -1 -1 -0 -1 -1 -1 -1 0 2 2 0 -1 -1 -0 0 0 2 2 2 2 1 2 3 2 3 4 4 2 2 1 -2 -2 -3 -3 -3 -3 -3 -2 -3 -3 -4 -4 -4 -4 -5 -5 -4 -5 -6
-4 -2 -1 -1 -1 -1 -2 -2 -3 -2 -1 -2 -3 -1 -2 0 -1 -2 -2 -1 -0 1 1 1 2 3 3 3 3 2 3 2 0 -1 -2 -3 -4 -4 -4 -4 -4 -4 -4 -5 -5 -5 -5 -5 -5 -6 -6 -6 -7 -7
-6 -2 -1 -3 -4 -3 -3 -3 -3 -2 -2 -2 -3 -5 -4 -3 -4 -4 -4 -3 -1 1 1 2 3 3 2 2 0 -1 -1 -2 -3 -4 -5 -5 -6 -6 -5 -5 -5 -6 -6 -6 -6 -6 -6 -6 -7 -8 -8 -8 -9 -10
-4 -4 -4 -3 -3 -3 -1 -2 -2 -2 -3 -4 -5 -5 -6 -6 -6 -6 -6 -4 -1 -1 -1 -1 -2 -2 -1 -1 -1 -2 -4 -5 -6 -6 -6 -6 -6 -6 -6 -7 -7 -6 -6 -7 -7 -7 -7 -8 -8 -10 -10 -11 -12 -11
-0 -1 -2 -2 -2 -1 -2 -2 -3 -4 -5 -5 -6 -6 -6 -7 -8 -8 -7 -6 -5 -4 -5 -5 -5 -5 -5 -5 -4 -4 -5 -6 -7 -7 -7 -7 -7 -7 -7 -7 -7 -8 -8 -8 -8 -9 -9 -9 -10 -10 -10 -10 -10 -11
-1 -1 -1 -1 -1 -1 -2 -2 -3 -4 -4 -5 -6 -7 -8 -8 -9 -9 -9 -8 -8 -9 -9 -8 -8 -8 -8 -7 -5 -6 -6 -7 -7 -7 -8 -8 -8 -8 -8 -8 -8 -8 -8 -9 -9 -10 -10 -10 -10 -11 -11 -11 -12 -12
-1 -2 -1 -1 -2 -2 -3 -2 -3 -4 -4 -5 -5 -6 -6 -7 -8 -10 -11 -11 -12 -10 -9 -10 -9 -9 -9 -8 -7 -6 -7 -7 -7 -7 -8 -9 -9 -9 -9 -9 -9 -9 -10 -10 -10 -11 -11 -12 -12 -12 -12 -12 -13 -13
-1 -1 -1 -1 -2 -2 -3 -3 -3 -3 -3 -4 -4 -6 -7 -8 -9 -10 -12 -12 -12 -11 -10 -11 -10 -10 -10 -10 -9 -8 -8 -8 -9 -9 -9 -9 -10 -10 -11 -11 -10 -11 -11 -12 -12 -12 -12 -13 -13 -14 -15 -18 -21 -23
-6 -7 -7 -5 -4 -4 -3 -3 -2 -3 -3 -3 -6 -7 -7 -8 -9 -11 -12 -12 -12 -12 -12 -11 -12 -11 -11 -11 -10 -9 -9 -8 -9 -9 -9 -10 -10 -11 -11 -11 -12 -12 -12 -13 -14 -15 -18 -22 -24 -24 -24 -24 -25 -25
-10 -9 -8 -7 -6 -5 -5 -4 -4 -4 -5 -6 -7 -7 -8 -8 -10 -12 -12 -13 -13 -13 -12 -12 -12 -12 -11 -11 -12 -12 -11 -10 -10 -10 -10 -10 -11 -12 -12 -13 -14 -17 -20 -23 -24 -24 -25 -25 -26 -27 -28 -28 -28 -28
-10 -8 -8 -7 -7 -7 -6 -6 -7 -5 -5 -7 -8 -8 -9 -10 -10 -11 -12 -13 -13 -14 -13 -13 -13 -13 -13 -13 -13 -12 -12 -11 -11 -12 -13 -13 -14 -17 -20 -22 -23 -24 -24 -25 -27 -29 -29 -29 -29 -28 -28 -28 -27 -26
-8 -9 -9 -9 -8 -8 -8 -8 -8 -7 -7 -8 -9 -10 -10 -11 -12 -12 -13 -13 -14 -15 -14 -14 -14 -13 -13 -13 -13 -13 -13 -12 -13 -17 -19 -21 -21 -22 -23 -24 -26 -28 -29 -30 -29 -28 -28 -28 -27 -27 -26 -26 -26 -25
-9 -10 -11 -13 -12 -11 -10 -11 -12 -12 -11 -10 -11 -11 -12 -12 -12 -14 -14 -15 -15 -15 -14 -13 -13 -13 -13 -13 -13 -15 -18 -21 -22 -23 -25 -25 -27 -28 -30 -30 -30 -28 -28 -28 -28 -28 -27 -27 -27 -26 -26 -25 -25 -25
-10 -13 -13 -14 -15 -15 -14 -15 -14 -13 -13 -14 -14 -14 -14 -14 -14 -15 -15 -16 -15 -14 -14 -13 -13 -14 -14 -17 -22 -23 -24 -25 -25 -27 -29 -31 -31 -30 -30 -29 -29 -28 -28 -28 -27 -27 -27 -26 -26 -26 -25 -25 -25 -25
-12 -13 -16 -18 -17 -17 -17 -16 -16 -16 -16 -15 -15 -16 -17 -17 -18 -17 -16 -15 -15 -15 -14 -15 -16 -19 -22 -24 -24 -25 -26 -28 -29 -31 -32 -30 -29 -28 -28 -28 -27 -27 -27 -27 -27 -26 -26 -26 -26 -25 -25 -25 -25 -25
-14 -14 -16 -18 -18 -17 -17 -17 -17 -17 -16 -16 -17 -17 -18 -19 -18 -17 -16 -16 -15 -15 -16 -20 -22 -23 -24 -25 -27 -28 -30 -31 -31 -30 -29 -28 -28 -27 -27 -28 -28 -27 -27 -27 -26 -26 -26 -25 -25 -25 -25 -25 -25 -25
-14 -14 -16 -17 -17 -16 -16 -16 -17 -17 -17 -17 -17 -18 -18 -19 -18 -17 -17 -16 -16 -18 -21 -22 -23 -23 -24 -26 -28 -30 -30 -29 -29 -28 -28 -28 -28 -28 -28 -28 -28 -28 -27 -27 -26 -26 -26 -25 -25 -25 -25 -25 -26 -26
-14 -14 -16 -16 -16 -15 -16 -15 -15 -16 -15 -16 -16 -17 -17 -17 -18 -18 -18 -17 -18 -21 -22 -22 -22 -22 -25 -28 -30 -30 -29 -28 -28 -28 -28 -29 -29 -29 -28 -28 -28 -27 -27 -27 -26 -26 -26 -26 -25 -25 -25 -26 -26 -26
-13 -13 -13 -14 -14 -14 -15 -14 -15 -15 -15 -15 -17 -17 -18 -18 -18 -18 -18 -18 -18 -19 -19 -19 -20 -23 -26 -29 -29 -28 -27 -27 -28 -30 -30 -30 -29 -28 -28 -28 -27 -27 -27 -26 -26 -26 -26 -26 -26 -25 -25 -25 -26 -26

GFSWCAN_850_dewp_075.txt.gz
Dewpoint
-1 -1 -1 -0 -0 -1 -2 -1 -1 -1 -1 -0 -0 0 -1 1 0 0 0 -1 -1 -3 -3 -4 -1 -3 -2 -3 -0 -4 1 2 4 5 7 2 2 -4 -4 -8 -2 7 7 9 8 11 9 -1 -1 0 -0 -3 -2 -2
-0 -0 -1 0 -0 -1 -1 -1 -1 -1 -1 1 -0 -0 -1 1 0 0 0 -0 -1 -2 -1 2 3 2 -1 -2 -3 -3 -0 -0 0 2 4 2 6 7 -1 1 -8 4 4 5 4 4 1 -1 -2 -2 -3 -1 -1 -1
-0 -1 -1 -1 -1 -0 -0 -0 -1 1 -0 0 1 -1 -1 1 0 0 0 0 0 1 2 -0 -0 1 1 1 1 2 0 -2 -1 -2 -0 1 4 -1 7 3 -3 -5 -5 2 2 -1 0 -0 1 -0 -0 -0 -1 0
0 -1 -1 -0 -1 1 1 -0 0 -1 -0 0 0 -1 1 1 0 0 1 -0 0 -0 -0 -3 -2 0 -0 0 1 3 4 1 -0 -1 4 4 6 -5 3 -2 -1 -3 -3 1 -0 -2 -2 1 1 2 1 1 -0 0
1 -0 -0 -0 -1 1 1 0 -0 1 1 1 -1 0 1 -0 -0 0 0 0 -1 -3 -1 -3 -2 -2 1 1 -0 2 4 4 3 4 7 5 -1 -4 -2 -0 0 -4 -2 3 4 -1 0 -1 0 1 2 2 2 2
1 -1 0 -1 -1 -0 1 1 1 1 0 -0 -1 -0 -0 -0 -0 -0 -0 -0 -1 1 -0 1 0 -3 -2 0 1 1 3 3 4 -0 4 -0 -5 -3 7 3 -3 -6 -6 -2 -1 0 3 3 0 0 3 3 3 2
1 1 0 -0 -1 -1 -1 0 0 0 -1 -1 1 -0 -0 -1 -1 -1 -0 -1 -1 -1 -1 -0 1 1 -3 -3 -1 0 2 3 4 2 2 1 -0 1 7 6 -6 -6 -4 -4 -0 3 2 2 2 1 1 2 2 2
0 0 1 1 1 1 -0 1 -1 -0 -0 1 0 -0 -0 -0 -0 -0 -3 -3 -2 -0 -2 1 1 1 2 1 -0 -1 2 3 4 3 4 4 4 6 5 -1 -3 -4 -1 2 3 3 3 3 2 2 1 1 1 0
0 0 1 1 1 1 1 1 1 0 0 -0 -1 -1 -1 -1 -1 0 -0 -3 -1 -2 0 1 2 2 0 3 1 2 2 5 2 4 4 4 6 7 3 1 -1 -1 -1 0 2 2 2 2 1 1 1 1 0 -1
-1 -0 0 0 0 0 0 0 -0 -0 -1 -1 -1 -1 -1 -0 -2 -1 -1 -0 -1 -0 1 1 1 2 0 0 3 5 3 4 6 6 2 5 6 1 3 4 4 4 3 3 3 2 2 2 2 1 1 1 0 -1
-1 -1 -1 -0 -0 -0 -0 -0 -0 -1 -1 -1 -0 0 -0 -1 -0 0 -0 1 1 2 0 -0 1 1 1 2 3 3 4 5 6 5 5 4 4 2 3 4 4 4 3 3 3 2 2 2 2 1 1 0 -1 -1
-3 -2 -1 -1 -1 -1 -1 -1 -1 -1 -1 0 -1 -0 -0 -0 1 2 3 2 2 1 1 2 1 1 1 0 0 3 5 4 7 5 8 6 4 2 2 3 3 3 2 1 1 1 1 0 0 -1 -2 -2 -2 -2
-2 -2 -3 -3 -2 -2 -1 -1 -1 -1 0 -0 -1 -2 1 1 1 2 2 2 3 2 3 3 3 2 1 0 0 3 5 5 3 6 5 3 1 1 1 1 0 0 -0 -1 -1 -1 -1 -2 -2 -2 -3 -4 -4 -4
-4 -4 -2 -2 -2 -3 -1 -1 0 -1 -0 1 1 2 3 1 2 2 1 3 2 2 3 2 2 2 0 1 1 4 3 2 6 6 3 1 -2 -2 -2 -3 -3 -4 -3 -3 -3 -3 -3 -3 -4 -5 -6 -6 -5 -6
-5 -6 -6 -5 -4 -4 -3 -1 -0 -0 -1 -0 1 1 1 0 -1 -1 -0 1 0 2 3 3 2 2 1 3 2 3 4 4 3 2 -0 -2 -3 -4 -5 -5 -5 -5 -6 -5 -5 -5 -6 -6 -6 -6 -6 -6 -6 -6
-1 -1 -2 -1 -1 -2 -2 -0 -0 -1 -2 -2 -3 -0 -3 1 -0 -2 -2 -1 -1 0 1 2 2 3 3 3 3 2 3 2 -0 -1 -3 -5 -6 -6 -6 -6 -6 -7 -6 -7 -7 -7 -6 -6 -7 -7 -6 -6 -6 -7
-0 -1 -1 -1 -2 -3 -4 -4 -1 -3 -2 -3 -3 -4 -3 -2 -4 -5 -5 -5 -2 -0 2 2 3 3 2 1 1 -1 -1 -2 -4 -4 -5 -6 -6 -6 -7 -7 -7 -7 -7 -7 -7 -7 -7 -7 -7 -7 -8 -8 -8 -8
-4 -2 -3 -3 -4 -4 -4 -3 -2 -3 -4 -4 -4 -4 -5 -6 -6 -7 -7 -5 -3 -2 -1 -1 -1 -1 -0 0 -1 -3 -5 -5 -5 -6 -6 -6 -7 -7 -7 -7 -7 -7 -7 -8 -8 -8 -8 -8 -9 -9 -10 -10 -10 -10
-2 -3 -4 -4 -2 -2 -3 -3 -2 -4 -4 -4 -4 -5 -5 -6 -7 -7 -7 -6 -5 -4 -4 -4 -4 -4 -4 -4 -3 -4 -5 -5 -6 -6 -7 -7 -7 -7 -7 -7 -7 -8 -8 -8 -8 -9 -9 -9 -9 -9 -10 -10 -10 -11
-1 -3 -2 -2 -1 -2 -2 -3 -3 -3 -4 -5 -5 -6 -7 -7 -8 -8 -8 -8 -6 -7 -7 -7 -7 -7 -6 -5 -4 -5 -6 -6 -6 -6 -7 -7 -8 -8 -8 -8 -9 -9 -9 -9 -10 -10 -10 -11 -11 -11 -11 -11 -12 -13
-2 -2 -2 -1 -2 -3 -3 -3 -3 -4 -4 -4 -5 -5 -6 -7 -8 -9 -9 -9 -10 -9 -9 -8 -8 -8 -8 -7 -6 -5 -5 -5 -6 -7 -8 -8 -9 -9 -9 -9 -9 -9 -10 -10 -11 -12 -12 -12 -13 -13 -13 -14 -14 -15
-2 -2 -1 -2 -2 -2 -3 -3 -3 -3 -3 -4 -4 -5 -5 -6 -7 -9 -10 -11 -11 -10 -10 -10 -9 -9 -9 -9 -9 -8 -8 -8 -9 -9 -9 -9 -9 -10 -10 -10 -11 -11 -12 -12 -13 -13 -14 -14 -14 -15 -15 -15 -17 -23
-5 -7 -7 -5 -3 -3 -3 -2 -2 -2 -2 -3 -4 -5 -6 -7 -8 -11 -11 -11 -12 -11 -10 -11 -11 -11 -11 -11 -10 -10 -10 -10 -10 -11 -11 -11 -11 -12 -11 -12 -12 -13 -13 -14 -15 -19 -21 -22 -22 -17 -17 -16 -16 -17
-9 -9 -6 -4 -4 -3 -3 -4 -4 -4 -4 -4 -6 -6 -7 -8 -9 -11 -11 -12 -12 -11 -11 -11 -10 -11 -11 -11 -11 -12 -12 -12 -12 -12 -13 -13 -13 -14 -14 -15 -15 -16 -16 -16 -17 -17 -19 -23 -24 -26 -23 -22 -21 -18
-10 -8 -7 -7 -6 -6 -5 -5 -5 -6 -6 -7 -8 -7 -8 -9 -9 -10 -11 -12 -12 -12 -12 -12 -11 -12 -12 -13 -13 -13 -13 -13 -12 -13 -13 -14 -15 -16 -17 -18 -17 -16 -16 -19 -24 -27 -28 -28 -28 -27 -27 -27 -19 -19
-8 -9 -9 -9 -8 -8 -8 -7 -7 -7 -7 -8 -8 -9 -9 -10 -10 -10 -12 -12 -13 -14 -13 -13 -13 -14 -14 -14 -14 -14 -14 -14 -13 -15 -15 -14 -14 -14 -15 -16 -21 -24 -24 -19 -17 -20 -23 -24 -25 -21 -19 -20 -25 -20
-9 -9 -11 -13 -12 -10 -9 -10 -11 -10 -9 -9 -10 -10 -11 -10 -11 -13 -13 -14 -14 -16 -15 -15 -14 -14 -15 -14 -13 -14 -17 -20 -22 -23 -25 -27 -29 -26 -24 -25 -25 -24 -28 -28 -27 -21 -20 -20 -21 -20 -20 -20 -22 -25
-11 -13 -12 -13 -13 -13 -13 -13 -13 -12 -12 -13 -12 -12 -12 -12 -13 -14 -14 -16 -16 -15 -14 -14 -14 -14 -15 -17 -22 -25 -27 -28 -30 -32 -33 -32 -31 -30 -30 -29 -29 -29 -28 -28 -28 -28 -26 -25 -22 -24 -25 -23 -26 -26
-11 -12 -15 -16 -15 -15 -15 -15 -15 -15 -15 -13 -13 -14 -16 -16 -15 -15 -16 -16 -16 -16 -15 -15 -15 -15 -19 -24 -25 -26 -22 -17 -21 -21 -19 -18 -25 -28 -29 -28 -28 -28 -26 -26 -28 -28 -27 -27 -26 -26 -26 -26 -26 -25
-12 -13 -15 -16 -16 -15 -16 -16 -16 -14 -15 -15 -16 -17 -17 -17 -18 -17 -16 -16 -16 -16 -16 -16 -16 -17 -23 -27 -29 -31 -32 -31 -24 -18 -17 -20 -26 -28 -28 -28 -28 -28 -27 -27 -26 -26 -27 -26 -25 -25 -26 -26 -26 -26
-12 -13 -14 -15 -15 -15 -15 -15 -15 -15 -15 -15 -16 -16 -16 -17 -17 -17 -16 -16 -16 -16 -16 -16 -17 -21 -23 -19 -20 -26 -30 -29 -29 -29 -29 -29 -29 -29 -29 -28 -28 -28 -27 -27 -27 -27 -27 -26 -26 -26 -26 -26 -26 -26
-12 -13 -14 -14 -14 -14 -14 -13 -14 -14 -14 -15 -15 -15 -15 -15 -16 -17 -17 -17 -17 -17 -17 -18 -21 -24 -28 -29 -30 -29 -29 -28 -28 -28 -29 -30 -30 -29 -29 -28 -28 -27 -27 -27 -27 -27 -27 -27 -26 -26 -25 -25 -26 -26
-11 -12 -13 -13 -13 -13 -13 -13 -14 -14 -14 -15 -15 -15 -16 -15 -16 -18 -17 -18 -18 -18 -18 -20 -22 -25 -28 -29 -29 -28 -28 -28 -29 -30 -30 -30 -29 -28 -28 -28 -28 -27 -27 -27 -27 -27 -27 -26 -26 -26 -26 -26 -26 -26

GFSWCAN_850_dewp_078.txt.gz
Dewpoint
-6 -4 -1 -1 -0 -0 -1 -1 -0 -0 -0 -0 -0 -0 -0 -1 -1 -1 0 0 1 1 -2 -3 1 1 -2 -3 -1 -4 -2 -0 3 4 6 5 5 1 -2 -5 6 7 8 8 8 10 8 -1 -0 1 1 -1 -2 -2
-1 -0 -0 0 0 -1 -1 -0 -0 -0 -1 -0 -1 -0 0 -0 -0 -1 0 0 0 -0 1 -0 -1 1 -1 -2 -3 -4 -2 -2 -0 4 5 4 6 5 -0 1 -2 6 4 7 5 6 4 0 -1 -2 -3 -0 -1 -0
0 0 1 0 -1 -0 -0 -0 -0 -1 -1 -1 -1 -0 1 -0 0 0 0 0 1 2 1 2 1 2 2 1 0 -2 -2 -3 -1 0 2 3 5 -0 7 3 -3 -5 1 5 5 1 2 3 3 1 0 0 -0 0
1 0 -0 -1 -0 -1 -0 -1 -0 -0 -2 -0 -0 0 0 0 -0 0 0 1 1 1 2 -1 -1 -1 1 -0 2 1 -0 -1 3 3 3 5 6 -1 2 1 1 -1 -3 -0 1 -0 -1 -2 0 1 1 1 1 0
0 -0 -0 -1 1 -0 0 0 -1 -1 -0 -0 -0 0 0 0 -0 -0 0 1 1 -2 1 -0 -2 -2 -0 -0 1 2 2 3 3 5 5 5 2 2 2 1 1 -3 -3 1 5 -0 1 0 -1 0 1 -1 -1 1
1 0 -0 0 1 -0 -0 -1 -1 -0 -0 0 0 1 0 0 0 1 1 1 1 1 -1 1 -1 -2 -2 -2 1 1 2 2 3 5 4 2 -0 2 8 4 -2 -3 -4 -5 -1 -1 1 4 2 1 1 3 2 2
1 -1 -2 1 1 -0 0 0 -0 0 0 0 0 0 1 0 1 0 0 1 1 0 -0 1 -1 -1 -2 0 -1 0 1 2 3 5 4 3 2 0 7 5 -3 -4 -5 -6 -5 -6 2 3 3 2 1 1 2 2
1 1 -2 0 0 1 1 1 1 0 0 1 1 0 0 0 0 -1 -1 -1 -1 -1 -2 1 0 2 1 -1 -0 -0 -0 3 3 4 4 4 2 3 4 -1 -1 -1 -3 -4 3 3 3 3 2 2 1 1 1 1
1 1 0 -0 0 0 0 0 0 0 -0 -0 -0 -0 0 0 -0 -0 -1 0 -0 -0 1 1 1 3 1 1 -1 -1 -0 4 3 5 4 4 5 6 2 -0 -1 -3 -3 -4 -4 2 3 2 2 1 1 1 0 -0
0 0 1 0 -1 0 1 0 -0 -1 -1 -0 -0 -1 -0 0 -2 -1 0 -1 0 1 1 1 -0 2 -0 0 2 2 2 3 5 4 4 5 5 1 -0 2 5 4 4 3 3 3 2 2 2 2 1 1 -0 -1
-0 0 -0 -0 -0 -0 -1 -1 -1 -0 -0 -0 0 0 -1 -1 -0 1 0 -0 -1 1 -0 -0 0 2 0 2 2 2 4 5 5 4 5 6 5 3 4 4 4 4 3 3 3 2 3 3 2 1 1 0 -0 -1
-1 -0 -1 -1 -1 -1 -1 -1 -0 -1 -1 -0 -0 -0 -0 0 0 2 2 1 1 1 0 2 1 0 1 0 2 2 5 4 5 2 6 4 3 2 3 3 3 2 2 2 2 1 1 1 1 0 -1 -1 -1 -2
-1 -1 -1 -1 -0 -1 -0 -0 -1 -1 -2 -2 -2 -1 1 0 1 2 1 0 2 1 1 2 3 2 0 0 1 2 4 5 4 6 5 2 0 -0 -0 0 -0 -0 -0 -0 -1 -1 -1 -2 -1 -1 -2 -2 -2 -3
-2 -2 -3 -2 -2 -2 -0 -0 -1 -1 -2 1 1 0 1 1 2 2 3 2 2 3 2 2 2 1 -0 0 1 3 3 3 5 5 3 -0 -2 -3 -3 -3 -3 -3 -3 -4 -4 -4 -4 -4 -5 -5 -5 -5 -5 -6
-2 -3 -3 -3 -3 -1 -2 -3 -3 -3 0 -0 0 1 1 -0 -1 -2 -1 0 -1 1 3 2 1 0 1 2 1 3 4 4 3 2 -1 -3 -4 -5 -5 -6 -6 -6 -6 -6 -6 -6 -7 -7 -7 -7 -6 -6 -6 -7
-5 -5 -3 -3 -5 -2 -2 -3 -2 -1 -2 -2 -4 -1 -3 0 -2 -4 -4 -3 -3 -1 1 2 1 2 3 2 3 3 2 1 -1 -2 -4 -5 -6 -6 -7 -7 -7 -7 -7 -7 -7 -7 -7 -7 -7 -7 -7 -7 -7 -7
-3 -2 -2 -3 -3 -2 -0 0 -1 -3 -3 -3 -3 -4 -3 -3 -4 -5 -6 -5 -4 -2 1 1 2 2 2 2 -0 -3 -2 -3 -4 -5 -6 -6 -7 -7 -7 -7 -7 -7 -7 -8 -8 -8 -8 -8 -7 -7 -8 -9 -9 -9
-1 -2 -3 -3 -2 -0 -3 -1 -3 -4 -4 -4 -4 -4 -6 -6 -6 -6 -6 -5 -4 -2 -1 -1 -1 -2 -2 -1 -2 -4 -5 -5 -5 -6 -6 -6 -6 -6 -7 -7 -7 -7 -8 -8 -8 -8 -8 -9 -9 -9 -10 -10 -10 -11
-0 -2 -3 -3 -2 -2 -2 -3 -2 -4 -4 -4 -4 -5 -5 -6 -7 -7 -7 -5 -5 -5 -4 -4 -5 -5 -4 -4 -4 -4 -5 -5 -5 -6 -6 -6 -6 -7 -7 -7 -8 -8 -8 -8 -8 -9 -9 -9 -9 -10 -10 -10 -10 -11
-2 -3 -2 -2 -2 -3 -2 -3 -3 -4 -3 -4 -5 -6 -6 -6 -7 -7 -8 -7 -7 -6 -7 -7 -7 -7 -6 -4 -5 -6 -6 -6 -6 -7 -7 -7 -8 -8 -8 -9 -9 -9 -9 -10 -10 -10 -10 -11 -11 -11 -11 -12 -12 -12
-1 -1 -1 -3 -4 -3 -3 -3 -3 -3 -3 -4 -4 -5 -5 -7 -8 -9 -9 -10 -10 -9 -9 -8 -8 -8 -7 -6 -5 -5 -5 -6 -7 -7 -8 -8 -9 -9 -9 -9 -9 -10 -10 -11 -11 -12 -12 -12 -13 -13 -13 -14 -14 -18
-2 -1 -2 -2 -2 -3 -3 -3 -3 -3 -3 -4 -4 -5 -6 -7 -8 -9 -11 -11 -10 -9 -10 -9 -10 -9 -9 -8 -8 -7 -7 -8 -8 -9 -9 -9 -10 -10 -10 -10 -11 -11 -12 -12 -13 -13 -13 -14 -14 -14 -16 -21 -22 -17
-5 -5 -6 -3 -3 -3 -2 -2 -2 -2 -2 -3 -4 -5 -5 -7 -7 -8 -10 -11 -11 -10 -10 -10 -10 -10 -10 -10 -9 -9 -9 -10 -10 -10 -11 -11 -11 -11 -11 -12 -12 -13 -14 -14 -16 -19 -19 -17 -16 -16 -15 -15 -16 -17
-9 -7 -4 -4 -4 -3 -4 -4 -3 -3 -4 -4 -5 -6 -6 -6 -7 -9 -10 -11 -11 -11 -10 -10 -11 -11 -11 -11 -11 -11 -11 -11 -12 -12 -12 -12 -13 -13 -14 -14 -15 -15 -15 -15 -16 -17 -18 -19 -17 -16 -17 -17 -17 -17
-9 -8 -6 -6 -6 -5 -6 -6 -5 -6 -6 -6 -7 -6 -7 -7 -9 -10 -10 -11 -12 -11 -12 -11 -12 -12 -12 -13 -13 -12 -12 -13 -13 -13 -13 -14 -15 -15 -15 -15 -15 -15 -16 -17 -17 -17 -17 -19 -21 -24 -24 -18 -18 -18
-8 -10 -9 -9 -8 -7 -7 -6 -6 -6 -7 -7 -7 -8 -8 -9 -10 -10 -11 -12 -13 -13 -12 -13 -13 -14 -14 -14 -14 -14 -14 -13 -13 -14 -13 -13 -13 -15 -16 -17 -18 -18 -16 -16 -17 -17 -19 -20 -19 -18 -19 -25 -24 -21
-9 -8 -11 -11 -11 -9 -8 -9 -10 -10 -9 -8 -8 -9 -9 -9 -10 -12 -13 -14 -14 -15 -14 -14 -14 -15 -15 -15 -14 -14 -13 -14 -15 -17 -18 -18 -19 -19 -20 -20 -18 -19 -22 -21 -19 -18 -18 -21 -20 -19 -19 -22 -26 -24
-12 -13 -11 -11 -12 -13 -12 -12 -12 -12 -12 -13 -11 -11 -12 -12 -12 -13 -14 -15 -15 -15 -15 -16 -15 -16 -15 -16 -17 -25 -29 -30 -31 -31 -31 -29 -29 -29 -29 -29 -28 -28 -28 -27 -28 -27 -26 -23 -24 -25 -25 -26 -27 -26
-10 -12 -15 -14 -14 -15 -15 -13 -14 -14 -14 -12 -11 -13 -15 -15 -14 -14 -15 -15 -15 -15 -15 -15 -15 -15 -15 -15 -17 -17 -15 -15 -16 -16 -17 -18 -22 -23 -27 -27 -26 -22 -24 -28 -29 -29 -29 -28 -28 -27 -27 -25 -23 -22
-11 -12 -14 -15 -15 -15 -15 -14 -13 -14 -15 -15 -16 -16 -16 -16 -16 -15 -15 -16 -16 -16 -16 -16 -16 -16 -17 -26 -31 -28 -23 -20 -18 -16 -17 -20 -23 -25 -27 -28 -28 -28 -27 -27 -27 -28 -28 -27 -25 -24 -24 -24 -25 -25
-10 -12 -14 -15 -14 -14 -14 -14 -15 -14 -14 -14 -15 -16 -16 -16 -17 -17 -16 -16 -16 -16 -16 -16 -16 -16 -16 -17 -18 -25 -30 -29 -29 -29 -29 -28 -29 -29 -29 -29 -28 -28 -28 -28 -27 -28 -27 -22 -21 -21 -23 -25 -26 -27
-11 -12 -14 -14 -14 -14 -13 -12 -12 -13 -13 -14 -15 -14 -13 -14 -15 -17 -17 -17 -16 -16 -16 -16 -16 -20 -28 -30 -29 -29 -29 -29 -29 -29 -30 -30 -29 -29 -29 -29 -28 -28 -28 -27 -27 -27 -27 -27 -25 -25 -25 -25 -26 -26
-11 -12 -12 -13 -13 -12 -13 -11 -13 -13 -13 -13 -14 -14 -14 -14 -15 -17 -17 -17 -17 -17 -16 -16 -20 -27 -29 -30 -29 -29 -28 -29 -30 -31 -30 -29 -29 -28 -28 -28 -28 -28 -27 -27 -26 -27 -27 -27 -27 -27 -27 -27 -27 -26

GFSWCAN_850_dewp_084.txt.gz
Dewpoint
-2 -2 -1 -2 -4 -6 -6 -6 -5 -5 -4 -3 -2 -3 -3 -2 -1 -1 -0 -0 -0 -1 -0 -2 -3 -1 -0 -1 -0 -2 -2 -2 1 0 -0 1 1 2 4 4 5 6 5 3 5 5 7 1 2 2 1 2 1 -1
-3 -4 -3 -2 -1 -1 -0 -0 -1 -0 -0 -1 -3 -5 -3 -3 -3 -1 -0 -1 -1 -1 -0 -0 -2 -3 -4 -2 -1 -1 -2 -3 -1 1 0 1 1 2 3 4 0 6 4 5 3 4 2 1 4 2 2 2 1 2
-1 -1 -0 -0 0 1 1 1 1 0 -0 -0 -0 -1 -1 -1 -2 -2 -0 -0 -1 -1 -2 -2 1 -3 -2 -3 -2 1 0 -2 -1 -3 1 1 1 2 3 2 1 2 3 4 4 2 3 1 3 1 1 1 -0 1
-1 -0 0 -1 0 0 0 0 -0 -1 -0 0 0 -0 -0 -1 -1 -1 -0 -1 -1 -1 -1 -1 -2 0 -2 -2 -2 -2 0 0 -0 -0 1 2 1 1 1 0 0 -2 2 3 2 1 1 -1 -0 -1 -1 -2 -0 -1
-0 -0 0 0 -1 -1 -1 -0 -1 -0 -0 0 1 -0 -1 -0 -1 -1 -1 -1 -2 -3 -1 1 -0 1 -2 -2 -2 -2 -0 1 1 1 1 3 3 3 3 2 -0 -1 2 4 4 1 1 -2 -1 -3 -4 -3 -2 -0
-1 1 -0 -0 0 -1 -0 0 0 -0 -0 -0 -1 -1 -1 0 -1 -1 -1 -1 -2 -4 1 1 -1 -0 -2 -1 -1 -0 1 2 1 1 1 2 1 2 4 3 -1 -3 -3 -3 0 -3 -1 -2 2 2 0 -0 -0 -0
0 0 -0 0 -1 -0 -0 -0 -0 -1 -1 -1 -1 -1 -1 0 -1 -1 -1 -2 -1 -1 -1 1 1 1 -0 -0 -1 2 1 0 1 2 1 2 2 1 3 3 1 0 -1 -0 -1 2 3 2 2 2 3 3 3 3
0 -0 -0 -0 -0 -2 -1 -0 -1 -0 -1 -1 -0 -0 -0 -0 -0 -1 -1 -2 -1 0 -0 1 2 1 2 2 0 0 0 1 2 1 2 1 1 1 2 1 -1 -1 -1 -1 -2 1 2 2 1 1 1 1 2 2
0 0 1 -0 0 -0 -1 -1 -0 -0 -0 -0 -0 -0 -0 -0 -0 -1 -1 -0 -1 0 -1 -2 -1 2 1 1 0 0 0 0 1 -0 0 1 2 2 2 2 2 -0 -1 -1 2 2 2 2 1 1 0 0 0 -0
-0 -0 0 0 0 0 -0 0 0 0 0 -0 -0 -0 -0 1 0 1 1 -0 0 0 -1 -4 -1 0 0 0 1 1 0 -1 1 1 1 0 1 -1 2 3 3 3 2 1 3 2 1 1 0 0 -0 -1 -1 -2
-0 -0 -0 -0 -0 -0 -0 0 -0 -0 -0 -1 -0 -1 0 1 0 -0 -1 -0 -0 -0 0 -0 -1 0 0 -1 0 0 1 -2 2 0 2 3 3 2 0 0 1 2 2 2 1 2 2 1 0 -0 -1 -2 -2 -2
-0 -0 -0 0 0 0 0 0 -0 -2 -2 -1 -0 -0 -0 0 0 -1 -1 -1 -2 -2 -1 -0 -0 -1 0 -0 -2 -1 0 1 2 0 1 4 2 0 0 1 -0 1 2 1 2 1 0 0 -1 -1 -2 -3 -3 -4
-0 -0 -0 0 -0 -0 -0 -1 -2 -2 -2 -3 -3 -2 -2 -2 -3 -5 -1 0 -2 -1 0 1 1 -1 -0 0 -1 0 1 1 1 1 1 1 -1 -2 -2 -3 -1 -0 1 -1 -0 0 -0 -1 -2 -2 -3 -4 -5 -5
-1 -0 -0 -0 -0 -1 -0 0 0 -1 -2 -1 -3 -1 -2 -1 -1 -1 1 1 -1 -0 1 1 0 -0 -0 -0 0 1 -1 2 3 3 2 -1 -3 -4 -4 -2 -2 -2 -0 -1 -3 -2 -2 -2 -3 -4 -4 -4 -4 -5
-3 -2 -1 -1 -0 -1 -3 -4 -4 -3 -3 -3 -4 -2 -2 -3 -4 -5 -4 -3 -3 -1 1 0 0 0 -0 0 0 1 2 3 1 -0 -3 -4 -5 -5 -5 -5 -5 -5 -5 -5 -5 -4 -4 -5 -5 -6 -6 -5 -5 -6
-5 -4 -3 -2 -3 -3 -4 -6 -6 -5 -5 -6 -6 -5 -5 -6 -6 -6 -6 -5 -4 -3 -0 1 0 1 1 1 0 -2 -1 -2 -4 -6 -6 -6 -6 -6 -6 -6 -6 -6 -6 -7 -7 -7 -7 -7 -8 -8 -8 -7 -7 -7
-4 -3 -4 -2 -4 -5 -6 -7 -6 -5 -4 -5 -7 -7 -5 -6 -6 -6 -6 -6 -4 -3 0 0 -1 -2 -2 -2 -4 -4 -5 -5 -6 -6 -6 -7 -7 -7 -8 -8 -8 -8 -8 -8 -8 -8 -8 -8 -8 -8 -9 -9 -9 -9
-3 -3 -4 -3 -4 -6 -7 -6 -6 -6 -5 -5 -7 -6 -7 -8 -8 -8 -7 -6 -5 -3 -3 -4 -4 -4 -4 -3 -5 -5 -6 -6 -6 -6 -7 -7 -8 -8 -8 -9 -9 -9 -9 -9 -9 -9 -9 -8 -9 -10 -10 -10 -10 -11
-5 -6 -6 -3 -4 -5 -4 -4 -6 -6 -6 -6 -6 -6 -8 -8 -9 -9 -8 -6 -6 -5 -6 -6 -7 -7 -7 -5 -5 -6 -6 -7 -7 -8 -8 -8 -8 -8 -8 -9 -9 -9 -9 -9 -9 -10 -10 -10 -10 -10 -11 -11 -11 -12
-2 -2 -4 -3 -4 -5 -4 -3 -5 -5 -5 -7 -9 -9 -10 -10 -10 -9 -9 -8 -8 -8 -8 -8 -8 -9 -8 -6 -7 -7 -8 -8 -8 -9 -9 -9 -9 -9 -9 -9 -9 -9 -9 -9 -10 -9 -10 -10 -11 -12 -12 -13 -14 -15
-2 -3 -5 -6 -5 -4 -3 -4 -3 -4 -4 -5 -7 -7 -8 -11 -12 -11 -11 -10 -10 -9 -9 -10 -10 -8 -7 -7 -7 -8 -8 -8 -9 -9 -10 -10 -10 -10 -10 -10 -9 -9 -10 -10 -10 -10 -11 -12 -12 -13 -14 -16 -18 -18
-2 -3 -3 -4 -4 -3 -3 -4 -4 -4 -5 -5 -6 -7 -7 -8 -10 -12 -13 -11 -10 -10 -11 -11 -11 -9 -8 -8 -8 -8 -8 -9 -9 -10 -10 -10 -10 -10 -10 -10 -9 -10 -11 -11 -12 -12 -13 -13 -13 -16 -20 -19 -19 -19
-3 -4 -4 -4 -4 -4 -3 -2 -3 -3 -4 -4 -5 -6 -7 -8 -10 -14 -11 -11 -11 -11 -11 -11 -11 -11 -10 -10 -9 -9 -9 -9 -10 -10 -10 -10 -11 -11 -11 -11 -11 -12 -13 -15 -17 -20 -20 -20 -20 -21 -20 -21 -22 -22
-7 -7 -7 -7 -5 -4 -5 -5 -4 -4 -5 -5 -5 -6 -6 -8 -12 -12 -12 -12 -13 -12 -12 -11 -11 -11 -11 -10 -11 -11 -11 -10 -11 -11 -11 -11 -11 -12 -12 -13 -15 -16 -19 -21 -21 -21 -19 -19 -19 -20 -22 -24 -25 -26
-12 -11 -10 -11 -9 -7 -7 -7 -8 -7 -7 -7 -8 -8 -6 -9 -9 -11 -12 -13 -14 -13 -13 -12 -12 -12 -13 -13 -13 -13 -12 -12 -12 -12 -13 -12 -12 -14 -19 -21 -22 -23 -22 -23 -21 -21 -20 -21 -22 -23 -24 -26 -28 -28
-11 -10 -11 -11 -11 -9 -9 -10 -10 -10 -11 -9 -9 -8 -13 -13 -14 -13 -14 -14 -15 -14 -14 -13 -13 -13 -13 -13 -13 -13 -13 -12 -12 -13 -14 -13 -16 -21 -22 -21 -21 -20 -20 -24 -27 -27 -25 -24 -25 -26 -27 -27 -25 -25
-14 -14 -12 -14 -12 -11 -13 -14 -14 -15 -14 -13 -13 -15 -15 -15 -14 -14 -15 -15 -15 -15 -14 -14 -13 -13 -14 -14 -14 -14 -13 -13 -12 -14 -17 -19 -20 -20 -21 -22 -22 -23 -23 -25 -27 -27 -28 -27 -26 -26 -26 -26 -27 -28
-13 -15 -16 -15 -15 -14 -17 -16 -15 -14 -15 -14 -14 -16 -17 -17 -15 -15 -15 -16 -15 -15 -15 -15 -14 -14 -14 -14 -14 -14 -14 -14 -14 -17 -20 -22 -22 -22 -23 -24 -24 -22 -23 -24 -27 -28 -27 -26 -26 -27 -28 -28 -29 -29
-12 -15 -16 -18 -16 -16 -14 -16 -16 -15 -15 -14 -19 -18 -15 -16 -15 -15 -16 -16 -16 -16 -16 -16 -15 -15 -15 -15 -15 -16 -17 -22 -26 -27 -28 -27 -26 -25 -27 -28 -28 -28 -28 -28 -28 -27 -27 -28 -28 -28 -29 -28 -29 -28
-14 -15 -16 -15 -19 -17 -14 -15 -15 -16 -16 -16 -16 -16 -16 -16 -15 -15 -15 -16 -16 -16 -16 -16 -16 -15 -15 -15 -15 -15 -17 -19 -22 -25 -27 -26 -27 -28 -28 -27 -26 -27 -28 -29 -29 -29 -29 -29 -28 -28 -28 -28 -28 -28
-13 -15 -15 -14 -15 -14 -16 -16 -17 -18 -18 -18 -18 -18 -17 -16 -16 -16 -16 -16 -16 -16 -15 -15 -15 -15 -15 -16 -17 -22 -23 -22 -25 -27 -28 -28 -28 -27 -27 -27 -28 -28 -28 -28 -29 -29 -28 -28 -28 -28 -27 -27 -27 -27
-13 -15 -15 -19 -13 -14 -14 -13 -15 -16 -16 -16 -15 -16 -15 -16 -17 -17 -17 -16 -16 -16 -16 -16 -16 -16 -17 -23 -26 -29 -29 -28 -28 -29 -29 -28 -29 -29 -29 -29 -28 -28 -28 -28 -28 -28 -28 -28 -28 -28 -28 -28 -28 -28
-15 -15 -15 -14 -13 -13 -12 -12 -13 -13 -13 -13 -14 -15 -15 -16 -18 -17 -17 -17 -16 -16 -16 -16 -16 -19 -27 -28 -28 -29 -30 -30 -30 -29 -29 -28 -28 -28 -28 -28 -28 -28 -28 -28 -27 -27 -27 -27 -28 -28 -28 -27 -27 -27

GFSWCAN_850_dewp_087.txt.gz
Dewpoint
-2 -2 -2 -1 -1 -2 -1 -1 -1 -2 -3 -2 -2 -2 -1 -1 -0 -0 -0 -0 -1 -1 0 -2 -2 -2 -1 -1 -0 -2 -1 -1 -1 -1 -2 -0 0 0 0 1 4 5 6 6 5 5 5 0 4 3 2 2 1 -0
-3 -2 -2 -3 -3 -2 -2 -2 -4 -5 -6 -5 -3 -3 -2 -2 -1 -1 -1 -1 -1 -1 -0 -0 -1 -2 -3 -4 -2 -2 -2 -2 -1 -1 -1 -1 -1 -1 1 2 2 4 3 5 4 3 1 -1 3 0 2 2 1 1
-2 -3 -2 -1 -1 -0 -0 -0 -0 -0 -0 -0 -2 -4 -5 -2 -2 -1 -1 -0 -1 -1 -1 -0 -1 -2 -3 -2 -2 -2 -1 -3 -2 -2 0 0 -1 -1 -0 2 1 1 2 5 4 2 1 -0 -1 1 3 1 1 0
-2 -1 -1 -0 0 0 0 -0 -0 -0 -0 0 0 -1 -1 -3 -2 -1 -0 -1 -1 -1 -1 -3 -4 -3 -3 -2 -2 -1 -2 -1 -0 -0 1 -0 0 -0 -0 -1 2 -0 3 4 2 1 -0 -2 -3 -2 -1 1 1 1
-0 -0 -1 -0 -0 -1 -1 -1 -1 -1 0 -0 -0 0 -0 -1 -1 -2 -1 -1 -1 -3 -3 -4 -6 -8 -7 -2 -2 -0 -1 -0 -1 0 1 2 1 1 1 2 2 -2 -0 2 1 -1 -1 -1 -2 -1 0 0 1 1
-1 0 -1 -1 0 -1 -1 -1 -1 -0 -1 0 0 -0 -0 -0 -1 -1 -1 -1 -1 -2 -3 -0 -1 -5 -6 -0 -1 -0 -1 -1 -0 2 2 1 -0 1 1 2 -1 -2 -3 -3 -0 -1 -1 -2 -1 -0 1 3 2 1
0 -0 -0 -0 -1 -1 -1 -0 -0 -0 -0 -0 -0 -0 0 -0 -1 -1 -1 -2 -1 -1 -1 -1 1 -0 -4 0 1 1 1 0 1 2 2 1 1 0 2 2 -0 -1 -1 -2 -2 -2 2 1 2 2 2 3 2 2
-0 0 0 -1 -1 -1 -1 -1 -1 -1 -0 -0 -0 0 -0 -1 -1 -1 -1 -2 -1 -1 -1 -1 1 2 1 1 2 0 0 1 2 2 2 1 0 1 1 0 -2 -4 -3 -4 -5 -4 -1 2 2 2 2 3 3 3
0 1 -1 -1 -1 -0 -1 -0 -0 -1 -1 -1 -0 -1 -0 -1 -1 -1 -1 -1 -1 -1 -1 -1 1 1 1 1 2 1 2 1 1 -0 0 1 -0 2 0 -0 2 3 2 2 1 0 2 2 1 1 1 2 0 -1
0 0 0 0 -1 -0 -1 -0 -0 -1 -0 -0 -1 -1 -0 -0 -1 -1 -0 0 -0 -0 -0 -1 -0 1 1 0 -0 -0 -1 -2 1 1 1 1 1 -1 -1 1 2 2 2 2 3 2 2 2 1 -0 -1 -1 -1 -1
-0 -0 0 -0 -0 -0 -1 -1 -1 -1 -0 -0 -0 1 0 -1 -2 0 -1 -0 -1 -0 -0 -0 -0 1 0 -0 1 -1 0 -2 1 -1 1 1 1 1 2 2 1 0 -0 1 2 2 1 1 0 -1 -2 -3 -3 -3
-0 -0 -0 -0 0 -0 -0 -0 -0 -1 -1 -0 -0 -0 0 0 -1 -1 -1 -1 -2 -0 -1 -0 -1 -0 0 -1 -1 -0 -1 0 1 -1 2 1 1 0 0 -0 0 0 -1 1 1 1 0 -0 -1 -2 -3 -4 -4 -4
-0 0 0 0 -0 0 1 1 0 -1 -1 -1 -1 -0 -0 -2 -3 -3 -1 0 -1 -3 -0 -0 -1 -1 -0 -1 -2 -1 -0 0 -0 2 1 1 -1 -2 -2 -2 -2 -1 -1 1 -1 -2 -2 -2 -3 -3 -4 -5 -5 -6
-0 0 0 0 0 0 -1 -0 -1 -2 -2 -2 -4 -3 -5 -5 -3 -3 -1 -0 -2 -1 -0 -0 -1 -1 -1 -1 -1 -0 -2 1 2 1 1 -1 -3 -4 -3 -4 -4 -4 -2 -1 -3 -4 -5 -4 -5 -5 -4 -6 -6 -6
-1 -0 -0 -1 -1 -1 -3 -4 -4 -4 -5 -5 -5 -3 -4 -4 -5 -5 -4 -4 -4 -2 0 0 -0 -1 -0 -1 -1 -1 1 1 0 -0 -3 -4 -5 -5 -5 -5 -6 -6 -4 -4 -4 -5 -7 -6 -6 -6 -6 -5 -5 -6
-3 -1 -2 -3 -4 -4 -5 -6 -6 -6 -6 -7 -7 -6 -6 -6 -7 -6 -6 -5 -5 -3 0 0 0 0 -1 -1 -0 -2 -2 -3 -5 -5 -6 -6 -6 -6 -6 -7 -7 -7 -5 -6 -7 -7 -7 -7 -8 -9 -8 -7 -7 -7
-5 -4 -4 -4 -5 -6 -6 -6 -7 -6 -6 -7 -7 -8 -7 -8 -8 -8 -8 -7 -5 -3 -0 -1 -2 -3 -2 -3 -4 -4 -5 -6 -6 -7 -7 -7 -7 -7 -7 -8 -8 -8 -8 -8 -8 -9 -9 -8 -8 -8 -9 -9 -9 -9
-6 -5 -3 -4 -4 -7 -8 -7 -7 -7 -6 -7 -8 -7 -9 -10 -9 -9 -8 -7 -5 -4 -5 -5 -5 -5 -5 -4 -5 -5 -6 -7 -7 -7 -8 -8 -8 -8 -8 -9 -9 -9 -9 -10 -10 -10 -9 -9 -9 -10 -10 -10 -10 -10
-6 -7 -4 -4 -6 -6 -5 -5 -8 -7 -7 -7 -9 -9 -10 -10 -9 -9 -8 -7 -6 -6 -7 -7 -7 -7 -7 -6 -6 -7 -7 -8 -9 -9 -8 -9 -9 -9 -9 -10 -10 -10 -10 -10 -10 -10 -10 -10 -10 -10 -10 -10 -11 -12
-3 -5 -5 -4 -6 -6 -4 -5 -6 -7 -8 -10 -10 -10 -10 -10 -10 -9 -9 -9 -8 -9 -9 -9 -9 -9 -8 -7 -8 -8 -8 -9 -9 -10 -10 -10 -10 -10 -10 -10 -10 -10 -10 -10 -10 -9 -9 -10 -10 -10 -11 -12 -13 -14
-3 -5 -6 -7 -6 -5 -4 -4 -4 -6 -7 -7 -9 -9 -9 -12 -11 -11 -10 -10 -11 -10 -10 -11 -10 -9 -7 -8 -8 -8 -9 -9 -10 -11 -11 -11 -10 -10 -10 -10 -9 -9 -9 -9 -9 -10 -10 -11 -12 -13 -14 -18 -20 -21
-3 -4 -5 -5 -4 -4 -4 -4 -4 -4 -5 -6 -6 -7 -8 -10 -11 -11 -13 -11 -11 -11 -11 -12 -11 -10 -9 -9 -9 -9 -9 -9 -10 -10 -10 -10 -10 -10 -10 -10 -9 -9 -10 -10 -10 -11 -13 -14 -15 -19 -24 -23 -22 -22
-5 -5 -5 -5 -5 -4 -3 -3 -4 -4 -4 -5 -6 -8 -9 -10 -13 -15 -12 -13 -13 -13 -12 -12 -11 -11 -11 -10 -10 -10 -10 -9 -10 -10 -10 -10 -10 -10 -10 -10 -10 -10 -10 -11 -12 -13 -15 -16 -20 -23 -24 -23 -24 -24
-8 -9 -9 -8 -6 -5 -5 -5 -5 -5 -6 -5 -6 -6 -8 -10 -12 -13 -12 -13 -14 -13 -12 -11 -11 -11 -11 -11 -11 -11 -11 -10 -10 -11 -11 -10 -11 -11 -10 -10 -11 -13 -15 -17 -20 -22 -21 -21 -22 -24 -24 -26 -26 -28
-12 -11 -11 -11 -10 -9 -9 -10 -10 -8 -8 -8 -9 -8 -8 -11 -11 -12 -13 -14 -15 -14 -14 -13 -12 -12 -13 -13 -13 -13 -12 -11 -11 -12 -12 -11 -11 -11 -13 -17 -19 -21 -21 -24 -23 -23 -23 -23 -23 -25 -25 -26 -28 -28
-12 -12 -12 -12 -11 -10 -11 -12 -12 -12 -13 -12 -11 -11 -15 -15 -15 -14 -15 -15 -15 -15 -15 -14 -13 -13 -13 -13 -13 -13 -13 -12 -11 -12 -13 -12 -12 -19 -24 -25 -24 -21 -21 -22 -25 -25 -24 -23 -25 -26 -26 -26 -26 -28
-15 -15 -14 -15 -13 -13 -15 -15 -15 -15 -15 -15 -15 -18 -18 -18 -16 -14 -15 -16 -16 -16 -15 -14 -14 -14 -14 -14 -14 -14 -13 -13 -12 -13 -15 -19 -22 -23 -23 -25 -24 -25 -25 -24 -25 -25 -27 -27 -26 -26 -27 -27 -26 -27
-14 -16 -17 -16 -16 -15 -18 -17 -17 -16 -15 -15 -17 -18 -17 -18 -16 -16 -16 -16 -16 -16 -15 -15 -14 -14 -14 -14 -14 -14 -14 -14 -14 -14 -17 -22 -21 -21 -21 -23 -24 -24 -25 -25 -25 -25 -25 -26 -27 -28 -28 -28 -29 -29
-15 -16 -17 -19 -17 -15 -15 -19 -17 -16 -16 -15 -22 -20 -17 -16 -16 -16 -16 -16 -16 -16 -15 -15 -16 -15 -15 -15 -15 -15 -15 -17 -21 -24 -25 -25 -25 -25 -26 -26 -26 -26 -26 -27 -27 -26 -26 -26 -27 -28 -28 -29 -29 -29
-16 -16 -16 -16 -19 -17 -16 -16 -16 -16 -16 -16 -16 -17 -17 -16 -16 -16 -16 -16 -16 -16 -16 -16 -16 -15 -15 -15 -15 -15 -19 -22 -25 -25 -27 -27 -26 -27 -27 -27 -28 -29 -29 -28 -28 -29 -29 -29 -28 -28 -28 -28 -28 -28
-15 -16 -15 -15 -16 -16 -18 -18 -18 -18 -18 -18 -18 -18 -17 -17 -17 -17 -16 -16 -16 -16 -16 -16 -16 -16 -16 -16 -16 -19 -20 -24 -26 -27 -27 -28 -28 -28 -27 -27 -27 -27 -27 -28 -28 -28 -28 -28 -27 -27 -27 -27 -28 -28
-15 -16 -16 -19 -15 -15 -14 -16 -18 -17 -17 -17 -16 -16 -16 -18 -17 -17 -17 -17 -16 -16 -16 -16 -16 -16 -16 -18 -24 -28 -28 -28 -29 -29 -28 -28 -28 -28 -28 -28 -28 -28 -28 -28 -28 -28 -28 -27 -28 -28 -27 -27 -27 -27
-15 -15 -15 -14 -14 -14 -14 -13 -13 -14 -14 -14 -14 -15 -16 -17 -18 -18 -18 -17 -17 -16 -16 -16 -17 -22 -28 -28 -28 -29 -30 -30 -30 -29 -29 -28 -28 -28 -28 -28 -28 -28 -28 -27 -27 -27 -28 -28 -28 -27 -27 -27 -27 -27

GFSWCAN_850_dewp_090.txt.gz
Dewpoint
-4 -3 -3 -2 -2 -2 -2 -1 -1 -1 -1 -2 -1 -2 -1 -1 -1 -1 -1 -1 -1 -1 -0 -1 -3 -2 -2 -2 -1 -2 -0 -0 0 1 0 0 0 -0 -1 -3 -1 3 5 6 6 7 6 1 4 7 3 3 3 2
-3 -3 -3 -3 -3 -3 -2 -3 -3 -3 -3 -2 -3 -2 -1 -1 -1 -1 -1 -1 -1 -1 -1 -0 -2 -3 -4 -5 -3 -3 -1 -1 -1 0 -1 -2 -1 -2 -0 1 -1 3 3 4 5 5 2 -1 -1 -2 1 2 2 2
-3 -2 -2 -2 -2 -2 -2 -2 -1 -1 -1 -2 -3 -2 -3 -2 -1 -1 -0 -1 -1 -1 -1 -0 -0 -2 -2 -3 -3 -2 -2 -2 0 1 2 0 -1 -2 -1 0 -0 -1 0 2 3 1 1 -0 -1 -1 -1 1 1 2
-2 -1 -1 -1 -1 -1 -0 -0 -0 -0 -0 -0 -0 -3 -4 -3 -3 -1 -0 -1 -1 -1 -1 -1 -1 -1 -2 -2 -2 -2 -2 -3 -3 -2 1 2 0 -1 -1 -3 -1 -1 0 1 2 1 0 -2 -4 -1 -1 0 0 3
-1 -1 -0 -1 -0 -0 -0 -0 -0 -0 -0 -0 -0 -1 -2 -5 -3 -1 -1 -1 -1 -2 -1 -3 -3 -4 -3 -3 -3 -2 -1 -1 -1 1 1 2 2 2 0 1 1 -2 -2 1 1 -1 -0 -1 -1 -1 -0 -0 -1 0
-1 -1 -0 -0 -0 0 -1 -1 -1 -1 -0 -0 -0 -0 -0 -1 -3 -1 -0 -1 -0 -1 -1 -1 -3 -4 -6 -3 -3 -3 -2 -1 2 2 1 0 -2 1 1 1 -2 -4 -4 -3 -2 -1 -2 -3 3 2 3 3 2 3
-0 0 -0 -0 -2 -2 -2 -1 -1 -1 -1 -1 -1 -0 0 -0 -1 -1 -1 -2 -1 -1 -1 -2 -4 -1 -3 -5 -4 -1 -1 -1 0 2 2 1 1 2 -1 1 -1 -3 -2 -1 -1 -3 -4 -3 1 2 2 2 3 4
0 -1 -1 -1 -1 -1 -1 -1 -1 -0 -1 -1 -1 -0 -0 -1 -1 -1 -1 -2 -2 -1 -1 -3 -4 1 1 -1 -0 -0 1 0 1 1 1 2 1 1 2 -0 -1 -3 -5 -4 -5 -7 -3 -0 2 2 3 3 4 4
0 0 -1 -1 -2 -1 -1 -1 -0 -0 -0 -1 -0 -0 -0 -1 -1 -1 -1 -1 -1 -2 -1 -2 -3 1 0 0 1 1 1 1 1 1 1 2 2 2 0 -1 -2 -6 -2 -2 -2 -0 2 2 1 1 1 1 2 -0
-1 0 -1 -1 -1 -0 -0 -0 -1 -0 -0 -1 -1 -1 -1 -1 -1 -1 -1 -1 -1 -0 -1 -3 -1 1 1 1 1 0 1 1 2 1 1 2 1 -1 -3 -3 -4 -4 -1 2 2 3 2 1 1 0 -1 -2 -1 -1
-0 -1 -0 -1 -0 -0 -1 -1 -1 -1 -1 -0 -0 -0 -1 -2 -1 -0 -1 -1 -1 -1 -1 -1 -1 0 -0 1 1 -0 1 -0 -1 -1 0 1 0 -1 -2 -1 0 1 1 0 1 2 2 1 0 -0 -2 -2 -3 -3
-0 -0 -1 -0 0 -0 -1 -2 -1 -1 -0 -0 -1 -0 -1 -1 -1 -2 -3 -1 -1 -1 -1 -1 -1 0 -0 -0 0 -1 -0 -0 0 -1 1 -0 -1 0 0 -0 0 0 -0 -0 -0 1 1 0 -1 -2 -3 -3 -4 -4
-0 -0 -0 -0 0 1 0 -0 -1 -2 -3 -3 -2 -0 -1 -2 -2 -1 -3 -1 -1 -2 -1 -1 -1 -0 -1 -1 -2 -1 -1 -1 -1 2 0 -1 -1 -2 -2 -2 -1 -2 -2 -2 -2 -2 -2 -2 -3 -3 -4 -5 -5 -6
0 -0 0 -0 -0 -0 -0 -1 -1 -2 -3 -2 -4 -4 -6 -8 -5 -4 -2 -1 -3 -1 -1 -1 -2 -1 -2 -1 -2 -1 -4 -0 2 1 1 -1 -3 -4 -3 -3 -3 -4 -4 -4 -4 -5 -6 -5 -6 -6 -6 -6 -6 -7
-0 -0 -1 -0 -0 -3 -5 -4 -5 -4 -6 -6 -6 -5 -5 -5 -6 -6 -5 -4 -4 -2 -1 -1 -1 -2 -1 -1 -1 -1 1 1 0 -4 -4 -4 -5 -5 -5 -5 -6 -6 -7 -7 -6 -7 -8 -8 -8 -9 -8 -8 -7 -7
-1 -2 -2 -2 -5 -3 -5 -7 -7 -7 -8 -8 -9 -7 -7 -6 -7 -7 -7 -6 -5 -3 -0 -0 -1 -1 -1 -2 0 -2 -1 -3 -7 -7 -6 -6 -6 -6 -7 -7 -7 -7 -7 -9 -9 -8 -8 -8 -8 -9 -8 -8 -9 -9
-3 -3 -4 -4 -6 -8 -7 -8 -8 -8 -8 -8 -8 -9 -9 -9 -9 -9 -9 -8 -5 -4 -1 -2 -2 -3 -3 -4 -4 -5 -6 -6 -7 -7 -7 -7 -7 -8 -8 -8 -8 -8 -9 -10 -10 -10 -10 -10 -9 -9 -10 -11 -10 -9
-5 -4 -4 -5 -5 -7 -9 -8 -8 -8 -7 -8 -9 -9 -10 -10 -10 -10 -8 -7 -6 -4 -5 -5 -5 -5 -5 -5 -5 -6 -7 -7 -8 -8 -8 -8 -8 -9 -9 -9 -9 -10 -10 -10 -11 -11 -11 -10 -10 -11 -10 -10 -10 -10
-7 -6 -4 -5 -6 -7 -7 -7 -9 -8 -9 -9 -11 -11 -11 -10 -9 -9 -8 -7 -7 -6 -7 -7 -8 -8 -8 -7 -7 -8 -8 -9 -9 -9 -9 -9 -9 -9 -10 -10 -10 -10 -10 -11 -11 -11 -11 -10 -10 -10 -10 -10 -10 -11
-5 -6 -5 -5 -6 -7 -5 -5 -9 -10 -10 -11 -10 -10 -11 -10 -10 -10 -10 -9 -9 -10 -10 -10 -10 -10 -9 -8 -8 -9 -9 -9 -10 -10 -11 -10 -10 -10 -10 -10 -11 -11 -10 -10 -10 -10 -10 -10 -10 -10 -10 -11 -13 -15
-6 -6 -7 -7 -7 -5 -5 -4 -6 -9 -8 -9 -9 -9 -9 -11 -11 -11 -11 -11 -12 -11 -11 -12 -11 -11 -9 -8 -9 -9 -9 -10 -10 -11 -11 -11 -11 -11 -11 -11 -11 -10 -10 -10 -10 -10 -10 -10 -11 -11 -13 -16 -21 -22
-5 -6 -6 -6 -5 -5 -5 -5 -5 -6 -7 -8 -7 -9 -9 -10 -11 -11 -13 -13 -13 -13 -13 -12 -12 -11 -10 -10 -10 -10 -10 -10 -10 -11 -11 -11 -11 -11 -11 -11 -9 -10 -10 -10 -10 -10 -11 -12 -14 -18 -22 -22 -21 -22
-6 -5 -4 -5 -5 -5 -3 -3 -4 -4 -5 -5 -7 -8 -10 -11 -12 -13 -12 -13 -14 -14 -13 -13 -12 -12 -12 -11 -11 -11 -11 -10 -11 -11 -11 -11 -11 -11 -10 -10 -10 -10 -10 -11 -11 -14 -16 -19 -22 -23 -24 -23 -24 -24
-8 -9 -9 -9 -7 -7 -6 -6 -6 -6 -7 -6 -6 -8 -9 -10 -12 -13 -13 -14 -15 -14 -14 -13 -12 -12 -11 -11 -12 -12 -12 -11 -11 -11 -11 -11 -11 -11 -10 -10 -10 -10 -11 -13 -16 -20 -21 -22 -23 -24 -25 -26 -26 -27
-13 -12 -12 -12 -11 -10 -10 -11 -11 -10 -9 -9 -9 -10 -10 -12 -12 -13 -14 -15 -15 -15 -15 -14 -13 -13 -14 -14 -13 -13 -12 -12 -12 -12 -12 -11 -11 -11 -11 -12 -16 -17 -18 -23 -23 -23 -24 -24 -25 -27 -27 -28 -30 -31
-13 -13 -13 -13 -13 -13 -12 -13 -13 -13 -14 -13 -13 -13 -17 -16 -16 -14 -15 -16 -16 -16 -15 -15 -14 -14 -14 -14 -13 -13 -13 -13 -12 -12 -13 -12 -12 -13 -19 -22 -22 -20 -19 -22 -25 -25 -25 -26 -28 -28 -29 -29 -29 -31
-15 -15 -15 -16 -14 -14 -15 -16 -16 -16 -15 -15 -16 -19 -18 -18 -16 -15 -16 -16 -16 -16 -15 -15 -14 -14 -15 -15 -14 -14 -14 -13 -12 -13 -15 -21 -22 -23 -23 -24 -24 -23 -22 -22 -23 -25 -27 -27 -27 -27 -28 -29 -28 -29
-15 -17 -18 -17 -16 -17 -19 -19 -18 -17 -16 -15 -18 -19 -19 -19 -16 -16 -16 -16 -16 -16 -15 -15 -14 -14 -14 -15 -15 -14 -14 -14 -14 -14 -15 -19 -21 -22 -24 -25 -26 -26 -26 -25 -26 -26 -25 -26 -27 -28 -27 -28 -29 -29
-16 -16 -17 -20 -17 -17 -17 -18 -17 -17 -17 -16 -23 -20 -17 -17 -16 -17 -16 -16 -16 -16 -16 -15 -15 -15 -15 -15 -15 -15 -16 -19 -21 -21 -22 -23 -22 -22 -23 -24 -25 -26 -27 -27 -27 -26 -26 -27 -27 -28 -28 -28 -28 -29
-16 -17 -17 -17 -20 -19 -17 -17 -17 -17 -17 -17 -17 -17 -17 -17 -17 -16 -16 -16 -16 -16 -16 -16 -16 -15 -15 -15 -15 -15 -15 -16 -18 -25 -27 -26 -27 -27 -28 -28 -28 -28 -28 -28 -28 -28 -29 -28 -28 -28 -28 -28 -28 -27
-16 -17 -16 -16 -17 -17 -17 -17 -18 -18 -18 -18 -18 -18 -17 -17 -17 -17 -17 -17 -16 -16 -16 -16 -16 -16 -16 -16 -16 -19 -19 -22 -25 -27 -27 -27 -27 -27 -27 -27 -28 -28 -28 -28 -28 -28 -28 -28 -28 -27 -27 -27 -27 -28
-16 -17 -17 -19 -15 -15 -15 -17 -17 -17 -16 -16 -15 -16 -17 -18 -17 -17 -18 -17 -17 -16 -16 -16 -16 -16 -16 -19 -24 -28 -29 -29 -29 -29 -28 -28 -28 -28 -28 -28 -28 -28 -28 -28 -28 -28 -28 -27 -27 -27 -27 -28 -28 -28
-15 -16 -16 -15 -15 -15 -15 -15 -14 -15 -15 -15 -16 -16 -17 -18 -19 -18 -18 -17 -17 -17 -17 -18 -22 -27 -28 -28 -29 -30 -30 -30 -29 -28 -28 -28 -28 -28 -28 -28 -28 -28 -28 -27 -27 -27 -27 -27 -27 -27 -27 -28 -28 -27

GFSWCAN_850_dewp_093.txt.gz
Dewpoint
-4 -4 -4 -4 -3 -3 -3 -3 -3 -3 -3 -2 -2 -2 -2 -2 -2 -2 -2 -2 -2 -2 -1 -1 -2 -3 -2 -2 -1 -1 -1 1 1 2 2 1 1 -2 -2 -4 -4 3 4 3 2 5 4 2 4 4 5 4 3 4
-4 -4 -3 -3 -3 -3 -2 -2 -2 -2 -2 -1 -1 -1 -1 -1 -1 -2 -1 -2 -2 -1 -1 -1 -3 -3 -4 -4 -3 -3 -1 -1 1 1 -0 -1 0 -0 -1 -2 -3 -1 0 4 5 3 4 2 0 -1 2 0 2 3
-4 -4 -4 -3 -3 -2 -2 -3 -3 -2 -2 -2 -3 -2 -1 -1 -1 -1 -1 -1 -1 -1 -1 -1 -1 -3 -3 -3 -5 -3 -2 -3 1 -0 1 1 1 -1 1 -0 -1 -2 -1 2 2 0 1 0 -1 -0 0 1 2 3
-3 -2 -2 -2 -2 -1 -1 -2 -2 -1 -2 -2 -2 -2 -2 -1 -1 -1 -1 -1 -1 -2 -1 -1 -2 -2 -5 -3 -3 -3 -3 -3 -3 -1 2 2 1 1 0 -2 -2 -4 -1 1 0 -2 0 -1 -1 -2 -1 1 1 2
-1 -1 -1 -1 -1 -1 -1 -1 -1 -1 -1 -1 -1 -1 -3 -2 -2 -1 -1 -1 -1 -2 -1 -1 -2 -2 -3 -3 -2 -2 -2 -1 -1 1 1 2 1 2 1 1 1 -2 -2 -0 0 -4 -1 -1 -1 -3 3 3 2 2
-0 -0 -0 -0 0 0 0 0 -1 -0 -1 -0 -1 -1 -1 -2 -2 -1 -1 -1 -1 -1 -1 -1 -4 -5 -4 -2 -2 -1 -1 -0 0 1 1 1 -1 0 2 2 -1 -2 -3 -3 -3 -5 -3 -2 -2 -0 0 3 3 3
-0 0 0 -0 -2 -3 -3 -3 -3 -2 -1 -0 -1 -0 -0 -1 -2 -1 -1 -1 -1 -1 -1 -1 -3 -4 -5 -4 -2 -1 -1 0 1 0 0 1 1 1 1 1 -3 -3 -3 -3 -3 -2 -1 -2 -4 -4 1 3 3 3
-0 -0 -2 -2 -1 -1 -1 -1 -2 -2 -2 -2 -0 -0 -1 -1 -2 -1 -1 -1 -1 -1 -1 -2 -3 -1 -1 -2 -2 -2 -2 -0 1 1 1 2 1 1 3 -1 -2 -2 -2 -2 -2 -2 -3 -4 -3 0 2 2 2 3
-0 -1 -0 -0 -1 -2 -2 -1 -1 -1 -2 -2 -1 -0 -0 -1 -1 -1 -1 -1 -1 -2 -1 -2 -3 -0 -0 0 -2 -1 -2 1 0 1 1 1 2 2 1 -0 -2 -3 -2 -4 -5 -2 1 2 1 1 2 2 1 -1
-1 -1 -1 -1 -1 -0 -0 -1 -1 -0 -0 -1 -0 -1 -2 -1 -1 -2 -1 -1 -1 -1 -1 -2 -3 -1 0 0 -1 -0 0 1 1 0 1 2 1 -2 -2 -2 -2 -2 -3 -3 -1 1 1 2 0 0 -0 0 -0 -2
-1 -0 -0 -1 -1 -1 -1 -1 -1 -0 -0 -1 -0 -0 -1 -1 -1 -1 -2 -1 -1 -1 -2 -2 -2 -0 -0 1 1 0 1 0 1 1 2 2 1 -1 -1 -1 -1 -1 -0 0 1 1 2 2 1 -0 -1 -2 -3 -4
-1 -0 -1 -1 -1 -0 -0 -1 -1 -1 -1 -1 -1 -1 -1 -1 -1 -1 -2 -1 -3 -2 -2 -1 -1 -0 -1 -0 0 -1 0 0 1 -0 2 1 -1 -0 -1 -1 -1 -0 0 -0 -0 -0 -0 0 0 -1 -2 -3 -6 -6
-0 0 0 -0 -0 -0 -0 -1 -1 -2 -2 -3 -3 -1 -2 -3 -4 -5 -2 -1 -1 -2 -1 -1 -0 -1 -1 -1 -1 -0 1 1 -1 2 1 -0 -2 -2 -2 -2 -2 -2 -1 -1 -1 -2 -2 -2 -3 -3 -4 -6 -8 -7
-0 0 0 -1 -0 -0 -1 -1 -2 -2 -3 -4 -6 -6 -7 -7 -5 -4 -3 -2 -3 -2 -1 -1 -1 -1 -1 -1 -1 -0 -2 0 1 2 1 -3 -4 -4 -4 -4 -4 -5 -4 -4 -5 -4 -4 -4 -5 -6 -7 -8 -8 -8
-1 0 -1 -3 -4 -5 -4 -5 -4 -5 -6 -7 -7 -6 -7 -6 -7 -6 -6 -4 -5 -3 -1 -0 -1 -2 -1 -1 -1 -1 0 1 0 -1 -5 -5 -5 -5 -6 -6 -6 -6 -7 -7 -7 -7 -7 -8 -8 -9 -9 -9 -8 -8
-1 -0 -0 -6 -6 -6 -6 -7 -6 -7 -9 -10 -10 -8 -9 -7 -8 -8 -8 -7 -6 -3 -1 -1 -1 -2 -1 -1 -1 -2 -1 -1 -5 -7 -7 -7 -7 -7 -7 -7 -7 -8 -8 -9 -9 -9 -10 -10 -10 -11 -11 -10 -10 -9
-2 -3 -4 -5 -8 -8 -8 -9 -9 -9 -9 -9 -9 -10 -9 -10 -10 -10 -9 -8 -6 -5 -2 -3 -4 -3 -4 -4 -5 -6 -6 -6 -7 -7 -8 -8 -8 -8 -8 -9 -9 -9 -10 -10 -11 -11 -11 -11 -12 -12 -12 -12 -10 -9
-4 -4 -4 -5 -5 -6 -9 -9 -9 -9 -9 -9 -10 -9 -10 -10 -10 -10 -9 -8 -6 -5 -6 -5 -6 -6 -6 -5 -6 -6 -7 -8 -8 -9 -9 -9 -9 -9 -9 -10 -10 -10 -11 -11 -12 -12 -12 -12 -12 -13 -13 -11 -11 -12
-6 -5 -5 -6 -6 -8 -8 -8 -10 -9 -10 -11 -11 -11 -10 -10 -10 -10 -9 -8 -8 -7 -8 -8 -8 -8 -8 -7 -7 -8 -8 -9 -10 -10 -9 -9 -9 -10 -10 -10 -11 -11 -11 -12 -12 -12 -12 -12 -12 -12 -12 -11 -11 -11
-6 -6 -5 -6 -7 -8 -6 -7 -11 -11 -10 -11 -10 -10 -11 -11 -11 -11 -10 -10 -11 -11 -11 -11 -11 -11 -10 -10 -8 -9 -9 -10 -10 -10 -11 -10 -10 -10 -11 -11 -11 -11 -12 -12 -12 -12 -11 -11 -11 -11 -10 -10 -11 -14
-6 -7 -7 -9 -8 -6 -5 -6 -8 -10 -10 -9 -9 -9 -10 -10 -11 -12 -12 -13 -13 -12 -12 -12 -12 -12 -11 -10 -9 -9 -10 -10 -10 -11 -11 -12 -11 -11 -11 -12 -12 -12 -11 -11 -11 -11 -11 -11 -11 -11 -11 -15 -21 -24
-6 -7 -6 -6 -6 -6 -6 -6 -7 -8 -8 -8 -8 -10 -10 -11 -11 -12 -13 -14 -14 -14 -14 -14 -13 -13 -12 -11 -11 -11 -11 -11 -11 -11 -11 -12 -12 -12 -12 -12 -11 -11 -11 -11 -10 -10 -11 -11 -13 -16 -23 -24 -23 -24
-5 -4 -6 -6 -6 -5 -4 -4 -5 -5 -6 -6 -8 -9 -10 -11 -11 -13 -13 -14 -15 -15 -15 -14 -13 -13 -12 -12 -12 -12 -11 -11 -12 -12 -12 -12 -12 -12 -11 -11 -11 -10 -11 -11 -10 -11 -14 -16 -21 -23 -23 -23 -26 -27
-5 -9 -10 -9 -8 -9 -8 -8 -7 -7 -8 -6 -8 -9 -10 -10 -12 -13 -14 -15 -15 -15 -14 -14 -13 -13 -12 -12 -13 -13 -13 -12 -12 -12 -12 -11 -11 -12 -11 -11 -11 -10 -10 -13 -17 -21 -22 -22 -22 -24 -25 -27 -27 -29
-14 -13 -13 -13 -13 -12 -12 -12 -12 -11 -10 -10 -10 -11 -11 -11 -13 -14 -15 -16 -16 -16 -15 -15 -14 -14 -14 -14 -14 -13 -13 -12 -12 -12 -12 -12 -12 -12 -12 -12 -13 -15 -17 -22 -23 -23 -23 -23 -24 -24 -25 -27 -29 -31
-14 -14 -14 -14 -13 -13 -13 -13 -13 -13 -14 -13 -13 -15 -17 -16 -16 -15 -16 -16 -16 -17 -16 -16 -15 -14 -14 -14 -14 -14 -14 -13 -12 -12 -13 -12 -12 -11 -14 -21 -21 -20 -20 -23 -25 -26 -26 -26 -27 -27 -28 -29 -31 -32
-16 -16 -16 -16 -15 -15 -16 -17 -17 -16 -15 -15 -16 -18 -18 -17 -16 -16 -16 -17 -17 -16 -16 -15 -15 -15 -15 -15 -14 -14 -14 -13 -12 -13 -15 -18 -21 -22 -22 -23 -23 -23 -22 -23 -24 -26 -28 -28 -28 -28 -29 -30 -30 -30
-15 -17 -17 -17 -17 -18 -19 -19 -18 -17 -17 -16 -19 -18 -18 -18 -17 -17 -17 -17 -17 -16 -16 -16 -15 -15 -15 -15 -15 -15 -15 -14 -14 -14 -14 -17 -23 -25 -25 -25 -25 -25 -25 -24 -25 -25 -26 -27 -27 -28 -28 -28 -29 -29
-16 -17 -18 -21 -19 -18 -18 -19 -18 -18 -18 -17 -21 -19 -18 -18 -17 -17 -17 -17 -16 -16 -16 -16 -16 -16 -16 -15 -15 -15 -15 -15 -15 -15 -15 -18 -22 -23 -24 -24 -25 -25 -25 -26 -26 -25 -25 -26 -27 -27 -28 -29 -29 -29
-17 -17 -18 -19 -21 -19 -18 -18 -18 -17 -17 -17 -18 -18 -18 -18 -17 -17 -17 -16 -16 -16 -16 -16 -16 -16 -16 -15 -15 -15 -15 -16 -17 -21 -25 -26 -26 -26 -24 -24 -25 -25 -25 -25 -26 -28 -28 -27 -28 -28 -28 -28 -28 -28
-17 -17 -17 -18 -18 -17 -17 -18 -18 -19 -19 -19 -19 -18 -18 -18 -17 -17 -17 -17 -17 -17 -16 -16 -16 -16 -16 -16 -17 -17 -17 -18 -19 -23 -26 -27 -27 -27 -27 -27 -28 -28 -27 -28 -28 -28 -28 -28 -28 -27 -27 -27 -27 -28
-17 -17 -18 -19 -17 -16 -16 -18 -17 -17 -16 -16 -16 -17 -17 -18 -18 -18 -18 -17 -17 -17 -17 -17 -16 -17 -19 -22 -26 -27 -28 -28 -27 -27 -27 -27 -27 -27 -27 -27 -27 -27 -26 -27 -27 -28 -28 -27 -27 -27 -27 -28 -28 -28
-16 -16 -16 -15 -16 -16 -15 -15 -16 -16 -16 -16 -17 -17 -18 -18 -19 -19 -18 -18 -17 -18 -19 -24 -27 -28 -28 -29 -29 -29 -29 -28 -28 -28 -28 -28 -28 -28 -27 -28 -28 -28 -27 -27 -27 -27 -27 -28 -28 -28 -28 -28 -28 -28